2016 Cux-Wetter.de -Die Nutzung der Wetterdaten nur mit ausdrcklicher Genehmigung
Wetterdaten: Dienstag, 30.08.2016
Datum Zeit Temp. A. Feuchte A. Luftdruck Regen Wind Richtung Richtung Sonnenschein Solar Taupunkt Windchill Windben
30.08.2016 00:00 16,7 C 78 % 1021,6 hPa 0,0 l/m 7,5 km/h (2 Bft) W-NW 290 0 min 0 W/m 12,8 C 16,1 C 20,9 km/h (4 Bft)
30.08.2016 00:03 16,7 C 78 % 1021,6 hPa 0,0 l/m 6,6 km/h (2 Bft) W-NW 284 0 min 0 W/m 12,8 C 16,6 C 16,1 km/h (3 Bft)
30.08.2016 00:06 16,8 C 78 % 1021,6 hPa 0,0 l/m 8,3 km/h (2 Bft) NW 323 0 min 0 W/m 12,9 C 15,8 C 16,1 km/h (3 Bft)
30.08.2016 00:09 16,8 C 78 % 1021,6 hPa 0,0 l/m 6,6 km/h (2 Bft) W 265 0 min 0 W/m 12,9 C 16,7 C 12,9 km/h (3 Bft)
30.08.2016 00:12 16,8 C 77 % 1021,6 hPa 0,0 l/m 6,4 km/h (2 Bft) W-NW 302 0 min 0 W/m 12,7 C 16,8 C 12,9 km/h (3 Bft)
30.08.2016 00:15 16,8 C 78 % 1021,7 hPa 0,0 l/m 6,2 km/h (2 Bft) W-NW 286 0 min 0 W/m 12,9 C 16,8 C 14,5 km/h (3 Bft)
30.08.2016 00:18 16,8 C 78 % 1021,6 hPa 0,0 l/m 5,6 km/h (2 Bft) NW 304 0 min 0 W/m 12,9 C 16,8 C 12,9 km/h (3 Bft)
30.08.2016 00:21 16,8 C 79 % 1021,7 hPa 0,0 l/m 7,7 km/h (2 Bft) W 276 0 min 0 W/m 13,1 C 16,1 C 17,7 km/h (3 Bft)
30.08.2016 00:24 16,7 C 79 % 1021,7 hPa 0,0 l/m 8,4 km/h (2 Bft) W 269 0 min 0 W/m 13,0 C 15,7 C 17,7 km/h (3 Bft)
30.08.2016 00:27 16,7 C 80 % 1021,7 hPa 0,0 l/m 5,5 km/h (2 Bft) NW 309 0 min 0 W/m 13,2 C 16,7 C 14,5 km/h (3 Bft)
30.08.2016 00:30 16,7 C 79 % 1021,7 hPa 0,0 l/m 8,4 km/h (2 Bft) NW 318 0 min 0 W/m 13,0 C 15,7 C 17,7 km/h (3 Bft)
30.08.2016 00:33 16,7 C 79 % 1021,8 hPa 0,0 l/m 8,4 km/h (2 Bft) W-NW 294 0 min 0 W/m 13,0 C 15,7 C 20,9 km/h (4 Bft)
30.08.2016 00:36 16,7 C 79 % 1021,8 hPa 0,0 l/m 7,8 km/h (2 Bft) W-SW 258 0 min 0 W/m 13,0 C 16,0 C 17,7 km/h (3 Bft)
30.08.2016 00:39 16,7 C 79 % 1021,8 hPa 0,0 l/m 6,0 km/h (2 Bft) N-NW 327 0 min 0 W/m 13,0 C 16,7 C 14,5 km/h (3 Bft)
30.08.2016 00:42 16,7 C 79 % 1021,8 hPa 0,0 l/m 6,0 km/h (2 Bft) W 267 0 min 0 W/m 13,0 C 16,7 C 14,5 km/h (3 Bft)
30.08.2016 00:45 16,7 C 79 % 1021,9 hPa 0,0 l/m 7,6 km/h (2 Bft) W-NW 288 0 min 0 W/m 13,0 C 16,1 C 14,5 km/h (3 Bft)
30.08.2016 00:48 16,7 C 79 % 1021,8 hPa 0,0 l/m 5,9 km/h (2 Bft) W 280 0 min 0 W/m 13,0 C 16,7 C 11,3 km/h (2 Bft)
30.08.2016 00:51 16,7 C 79 % 1021,9 hPa 0,0 l/m 6,9 km/h (2 Bft) N-NW 328 0 min 0 W/m 13,0 C 16,4 C 12,9 km/h (3 Bft)
30.08.2016 00:54 16,7 C 78 % 1021,8 hPa 0,0 l/m 6,9 km/h (2 Bft) W 263 0 min 0 W/m 12,8 C 16,4 C 12,9 km/h (3 Bft)
30.08.2016 00:57 16,6 C 79 % 1021,9 hPa 0,0 l/m 6,6 km/h (2 Bft) N 349 0 min 0 W/m 12,9 C 16,5 C 12,9 km/h (3 Bft)
30.08.2016 01:00 16,7 C 79 % 1021,9 hPa 0,0 l/m 5,8 km/h (2 Bft) W-SW 254 0 min 0 W/m 13,0 C 16,7 C 14,5 km/h (3 Bft)
30.08.2016 01:03 16,7 C 79 % 1021,9 hPa 0,0 l/m 6,3 km/h (2 Bft) W 281 0 min 0 W/m 13,0 C 16,7 C 14,5 km/h (3 Bft)
30.08.2016 01:06 16,7 C 80 % 1021,9 hPa 0,0 l/m 7,1 km/h (2 Bft) W-SW 252 0 min 0 W/m 13,2 C 16,3 C 12,9 km/h (3 Bft)
30.08.2016 01:09 16,6 C 80 % 1021,9 hPa 0,0 l/m 6,9 km/h (2 Bft) W 266 0 min 0 W/m 13,1 C 16,3 C 12,9 km/h (3 Bft)
30.08.2016 01:12 16,6 C 80 % 1021,9 hPa 0,0 l/m 4,7 km/h (1 Bft) W-SW 252 0 min 0 W/m 13,1 C 16,6 C 9,7 km/h (2 Bft)
30.08.2016 01:15 16,6 C 80 % 1021,9 hPa 0,0 l/m 8,6 km/h (2 Bft) W-NW 288 0 min 0 W/m 13,1 C 15,5 C 16,1 km/h (3 Bft)
30.08.2016 01:18 16,6 C 80 % 1021,9 hPa 0,0 l/m 8,2 km/h (2 Bft) W 271 0 min 0 W/m 13,1 C 15,7 C 17,7 km/h (3 Bft)
30.08.2016 01:21 16,6 C 80 % 1022,0 hPa 0,0 l/m 6,8 km/h (2 Bft) W-SW 250 0 min 0 W/m 13,1 C 16,4 C 16,1 km/h (3 Bft)
30.08.2016 01:24 16,6 C 80 % 1022,0 hPa 0,0 l/m 5,2 km/h (1 Bft) W 279 0 min 0 W/m 13,1 C 16,6 C 17,7 km/h (3 Bft)
30.08.2016 01:27 16,6 C 80 % 1022,0 hPa 0,0 l/m 7,2 km/h (2 Bft) NW 306 0 min 0 W/m 13,1 C 16,2 C 14,5 km/h (3 Bft)
30.08.2016 01:30 16,6 C 80 % 1022,0 hPa 0,0 l/m 6,8 km/h (2 Bft) W-NW 296 0 min 0 W/m 13,1 C 16,4 C 14,5 km/h (3 Bft)
30.08.2016 01:33 16,5 C 80 % 1022,0 hPa 0,0 l/m 6,1 km/h (2 Bft) W-SW 252 0 min 0 W/m 13,0 C 16,5 C 12,9 km/h (3 Bft)
30.08.2016 01:36 16,5 C 79 % 1022,1 hPa 0,0 l/m 6,1 km/h (2 Bft) W 272 0 min 0 W/m 12,8 C 16,5 C 14,5 km/h (3 Bft)
30.08.2016 01:39 16,6 C 79 % 1022,0 hPa 0,0 l/m 5,3 km/h (1 Bft) W 266 0 min 0 W/m 12,9 C 16,6 C 12,9 km/h (3 Bft)
30.08.2016 01:42 16,6 C 79 % 1022,1 hPa 0,0 l/m 4,4 km/h (1 Bft) N-NW 340 0 min 0 W/m 12,9 C 16,6 C 11,3 km/h (2 Bft)
30.08.2016 01:45 16,6 C 79 % 1022,1 hPa 0,0 l/m 4,5 km/h (1 Bft) W 281 0 min 0 W/m 12,9 C 16,6 C 12,9 km/h (3 Bft)
30.08.2016 01:48 16,5 C 79 % 1022,1 hPa 0,0 l/m 6,0 km/h (2 Bft) W-NW 299 0 min 0 W/m 12,8 C 16,5 C 14,5 km/h (3 Bft)
30.08.2016 01:51 16,5 C 78 % 1022,1 hPa 0,0 l/m 3,8 km/h (1 Bft) W 269 0 min 0 W/m 12,6 C 16,5 C 9,7 km/h (2 Bft)
30.08.2016 01:54 16,4 C 78 % 1022,1 hPa 0,0 l/m 6,0 km/h (2 Bft) W 271 0 min 0 W/m 12,6 C 16,4 C 16,1 km/h (3 Bft)
30.08.2016 01:57 16,4 C 78 % 1022,1 hPa 0,0 l/m 6,1 km/h (2 Bft) W 267 0 min 0 W/m 12,6 C 16,4 C 12,9 km/h (3 Bft)
30.08.2016 02:00 16,4 C 78 % 1022,2 hPa 0,0 l/m 4,5 km/h (1 Bft) W-NW 293 0 min 0 W/m 12,6 C 16,4 C 11,3 km/h (2 Bft)
30.08.2016 02:03 16,4 C 78 % 1022,2 hPa 0,0 l/m 8,3 km/h (2 Bft) W-SW 257 0 min 0 W/m 12,6 C 15,4 C 14,5 km/h (3 Bft)
30.08.2016 02:06 16,4 C 78 % 1022,1 hPa 0,0 l/m 6,7 km/h (2 Bft) W-SW 247 0 min 0 W/m 12,6 C 16,3 C 16,1 km/h (3 Bft)
30.08.2016 02:09 16,4 C 78 % 1022,1 hPa 0,0 l/m 4,5 km/h (1 Bft) W 274 0 min 0 W/m 12,6 C 16,4 C 14,5 km/h (3 Bft)
30.08.2016 02:12 16,4 C 79 % 1022,1 hPa 0,0 l/m 5,3 km/h (1 Bft) N-NW 343 0 min 0 W/m 12,7 C 16,4 C 11,3 km/h (2 Bft)
30.08.2016 02:15 16,4 C 79 % 1022,1 hPa 0,0 l/m 9,3 km/h (2 Bft) W 276 0 min 0 W/m 12,7 C 15,0 C 19,3 km/h (3 Bft)
30.08.2016 02:18 16,4 C 79 % 1022,1 hPa 0,0 l/m 6,2 km/h (2 Bft) W-SW 257 0 min 0 W/m 12,7 C 16,4 C 9,7 km/h (2 Bft)
30.08.2016 02:21 16,6 C 80 % 1022,1 hPa 0,0 l/m 6,1 km/h (2 Bft) W 269 0 min 0 W/m 13,1 C 16,6 C 12,9 km/h (3 Bft)
30.08.2016 02:24 16,6 C 80 % 1022,1 hPa 0,0 l/m 5,6 km/h (2 Bft) W 267 0 min 0 W/m 13,1 C 16,6 C 12,9 km/h (3 Bft)
30.08.2016 02:27 16,7 C 80 % 1022,1 hPa 0,0 l/m 9,9 km/h (2 Bft) W-SW 242 0 min 0 W/m 13,2 C 15,0 C 16,1 km/h (3 Bft)
30.08.2016 02:30 16,7 C 80 % 1022,1 hPa 0,0 l/m 9,3 km/h (2 Bft) W-NW 290 0 min 0 W/m 13,2 C 15,3 C 14,5 km/h (3 Bft)
30.08.2016 02:33 16,8 C 80 % 1022,1 hPa 0,0 l/m 5,9 km/h (2 Bft) W 259 0 min 0 W/m 13,3 C 16,8 C 12,9 km/h (3 Bft)
30.08.2016 02:36 16,7 C 80 % 1022,0 hPa 0,0 l/m 3,8 km/h (1 Bft) W 279 0 min 0 W/m 13,2 C 16,7 C 12,9 km/h (3 Bft)
30.08.2016 02:39 16,7 C 80 % 1022,0 hPa 0,0 l/m 6,7 km/h (2 Bft) W 278 0 min 0 W/m 13,2 C 16,6 C 12,9 km/h (3 Bft)
30.08.2016 02:42 16,7 C 80 % 1022,0 hPa 0,0 l/m 7,1 km/h (2 Bft) W-SW 255 0 min 0 W/m 13,2 C 16,3 C 14,5 km/h (3 Bft)
30.08.2016 02:45 16,7 C 80 % 1022,0 hPa 0,0 l/m 6,1 km/h (2 Bft) W-SW 250 0 min 0 W/m 13,2 C 16,7 C 14,5 km/h (3 Bft)
30.08.2016 02:48 16,6 C 79 % 1022,0 hPa 0,0 l/m 5,7 km/h (2 Bft) W-NW 292 0 min 0 W/m 12,9 C 16,6 C 12,9 km/h (3 Bft)
30.08.2016 02:51 16,5 C 77 % 1022,0 hPa 0,0 l/m 8,0 km/h (2 Bft) W 281 0 min 0 W/m 12,5 C 15,7 C 14,5 km/h (3 Bft)
30.08.2016 02:54 16,5 C 77 % 1022,1 hPa 0,0 l/m 8,8 km/h (2 Bft) W 273 0 min 0 W/m 12,5 C 15,3 C 14,5 km/h (3 Bft)
30.08.2016 02:57 16,5 C 78 % 1022,0 hPa 0,0 l/m 6,8 km/h (2 Bft) W 267 0 min 0 W/m 12,6 C 16,3 C 12,9 km/h (3 Bft)
30.08.2016 03:00 16,4 C 78 % 1022,0 hPa 0,0 l/m 7,3 km/h (2 Bft) W-NW 287 0 min 0 W/m 12,6 C 15,9 C 14,5 km/h (3 Bft)
30.08.2016 03:03 16,4 C 79 % 1022,1 hPa 0,0 l/m 5,8 km/h (2 Bft) W 277 0 min 0 W/m 12,7 C 16,4 C 11,3 km/h (2 Bft)
30.08.2016 03:06 16,3 C 79 % 1022,1 hPa 0,0 l/m 8,7 km/h (2 Bft) NW 317 0 min 0 W/m 12,6 C 15,1 C 16,1 km/h (3 Bft)
30.08.2016 03:09 16,3 C 78 % 1022,1 hPa 0,0 l/m 7,2 km/h (2 Bft) W 281 0 min 0 W/m 12,5 C 15,9 C 12,9 km/h (3 Bft)
30.08.2016 03:12 16,3 C 78 % 1022,1 hPa 0,0 l/m 4,8 km/h (1 Bft) W 267 0 min 0 W/m 12,5 C 16,3 C 12,9 km/h (3 Bft)
30.08.2016 03:15 16,3 C 79 % 1022,1 hPa 0,0 l/m 5,5 km/h (2 Bft) W 273 0 min 0 W/m 12,6 C 16,3 C 12,9 km/h (3 Bft)
30.08.2016 03:18 16,3 C 79 % 1022,2 hPa 0,0 l/m 5,0 km/h (1 Bft) W 275 0 min 0 W/m 12,6 C 16,3 C 11,3 km/h (2 Bft)
30.08.2016 03:21 16,3 C 80 % 1022,2 hPa 0,0 l/m 7,5 km/h (2 Bft) W-SW 242 0 min 0 W/m 12,8 C 15,7 C 12,9 km/h (3 Bft)
30.08.2016 03:24 16,3 C 80 % 1022,2 hPa 0,0 l/m 6,6 km/h (2 Bft) W 272 0 min 0 W/m 12,8 C 16,2 C 12,9 km/h (3 Bft)
30.08.2016 03:27 16,3 C 80 % 1022,1 hPa 0,0 l/m 7,3 km/h (2 Bft) W 265 0 min 0 W/m 12,8 C 15,8 C 11,3 km/h (2 Bft)
30.08.2016 03:30 16,3 C 80 % 1022,2 hPa 0,0 l/m 4,3 km/h (1 Bft) W 267 0 min 0 W/m 12,8 C 16,3 C 11,3 km/h (2 Bft)
30.08.2016 03:33 16,3 C 80 % 1022,2 hPa 0,0 l/m 7,4 km/h (2 Bft) W-NW 286 0 min 0 W/m 12,8 C 15,8 C 12,9 km/h (3 Bft)
30.08.2016 03:36 16,3 C 81 % 1022,2 hPa 0,0 l/m 5,5 km/h (2 Bft) W 278 0 min 0 W/m 13,0 C 16,3 C 11,3 km/h (2 Bft)
30.08.2016 03:39 16,3 C 81 % 1022,1 hPa 0,0 l/m 7,1 km/h (2 Bft) W-NW 291 0 min 0 W/m 13,0 C 15,9 C 12,9 km/h (3 Bft)
30.08.2016 03:42 16,3 C 81 % 1022,2 hPa 0,0 l/m 6,9 km/h (2 Bft) W 268 0 min 0 W/m 13,0 C 16,0 C 11,3 km/h (2 Bft)
30.08.2016 03:45 16,4 C 81 % 1022,2 hPa 0,0 l/m 8,2 km/h (2 Bft) W 275 0 min 0 W/m 13,1 C 15,5 C 14,5 km/h (3 Bft)
30.08.2016 03:48 16,5 C 81 % 1022,2 hPa 0,0 l/m 7,9 km/h (2 Bft) W 274 0 min 0 W/m 13,2 C 15,7 C 17,7 km/h (3 Bft)
30.08.2016 03:51 16,6 C 81 % 1022,2 hPa 0,0 l/m 9,7 km/h (2 Bft) W-NW 286 0 min 0 W/m 13,3 C 15,0 C 16,1 km/h (3 Bft)
30.08.2016 03:54 16,6 C 81 % 1022,2 hPa 0,0 l/m 6,6 km/h (2 Bft) NW 309 0 min 0 W/m 13,3 C 16,5 C 14,5 km/h (3 Bft)
30.08.2016 03:57 16,7 C 81 % 1022,2 hPa 0,0 l/m 8,1 km/h (2 Bft) W 262 0 min 0 W/m 13,4 C 15,8 C 17,7 km/h (3 Bft)
30.08.2016 04:00 16,7 C 81 % 1022,3 hPa 0,0 l/m 4,3 km/h (1 Bft) W-SW 244 0 min 0 W/m 13,4 C 16,7 C 11,3 km/h (2 Bft)
30.08.2016 04:03 16,6 C 82 % 1022,3 hPa 0,0 l/m 6,9 km/h (2 Bft) W 271 0 min 0 W/m 13,5 C 16,3 C 12,9 km/h (3 Bft)
30.08.2016 04:06 16,6 C 81 % 1022,4 hPa 0,0 l/m 3,8 km/h (1 Bft) NW 308 0 min 0 W/m 13,3 C 16,6 C 9,7 km/h (2 Bft)
30.08.2016 04:09 16,5 C 81 % 1022,4 hPa 0,0 l/m 5,0 km/h (1 Bft) W 262 0 min 0 W/m 13,2 C 16,5 C 14,5 km/h (3 Bft)
30.08.2016 04:12 16,4 C 80 % 1022,4 hPa 0,0 l/m 8,3 km/h (2 Bft) W-SW 254 0 min 0 W/m 12,9 C 15,4 C 12,9 km/h (3 Bft)
30.08.2016 04:15 16,3 C 80 % 1022,4 hPa 0,0 l/m 8,0 km/h (2 Bft) W 265 0 min 0 W/m 12,8 C 15,5 C 12,9 km/h (3 Bft)
30.08.2016 04:18 16,3 C 80 % 1022,4 hPa 0,0 l/m 6,0 km/h (2 Bft) W 271 0 min 0 W/m 12,8 C 16,3 C 11,3 km/h (2 Bft)
30.08.2016 04:21 16,3 C 80 % 1022,4 hPa 0,0 l/m 6,0 km/h (2 Bft) W-SW 246 0 min 0 W/m 12,8 C 16,3 C 16,1 km/h (3 Bft)
30.08.2016 04:24 16,3 C 79 % 1022,4 hPa 0,0 l/m 7,8 km/h (2 Bft) W 271 0 min 0 W/m 12,6 C 15,6 C 17,7 km/h (3 Bft)
30.08.2016 04:27 16,3 C 79 % 1022,4 hPa 0,0 l/m 7,2 km/h (2 Bft) W 267 0 min 0 W/m 12,6 C 15,9 C 11,3 km/h (2 Bft)
30.08.2016 04:30 16,3 C 79 % 1022,3 hPa 0,0 l/m 6,8 km/h (2 Bft) W 279 0 min 0 W/m 12,6 C 16,1 C 12,9 km/h (3 Bft)
30.08.2016 04:33 16,3 C 80 % 1022,4 hPa 0,0 l/m 7,6 km/h (2 Bft) SW 227 0 min 0 W/m 12,8 C 15,7 C 14,5 km/h (3 Bft)
30.08.2016 04:36 16,3 C 80 % 1022,4 hPa 0,0 l/m 5,1 km/h (1 Bft) W-SW 254 0 min 0 W/m 12,8 C 16,3 C 9,7 km/h (2 Bft)
30.08.2016 04:39 16,3 C 80 % 1022,4 hPa 0,0 l/m 5,5 km/h (2 Bft) W 273 0 min 0 W/m 12,8 C 16,3 C 12,9 km/h (3 Bft)
30.08.2016 04:42 16,2 C 81 % 1022,4 hPa 0,0 l/m 6,2 km/h (2 Bft) W-NW 287 0 min 0 W/m 12,9 C 16,2 C 12,9 km/h (3 Bft)
30.08.2016 04:45 16,3 C 81 % 1022,4 hPa 0,0 l/m 6,3 km/h (2 Bft) W 268 0 min 0 W/m 13,0 C 16,3 C 12,9 km/h (3 Bft)
30.08.2016 04:48 16,3 C 81 % 1022,4 hPa 0,0 l/m 4,7 km/h (1 Bft) W 269 0 min 0 W/m 13,0 C 16,3 C 12,9 km/h (3 Bft)
30.08.2016 04:51 16,3 C 81 % 1022,4 hPa 0,0 l/m 6,7 km/h (2 Bft) W-SW 257 0 min 0 W/m 13,0 C 16,2 C 12,9 km/h (3 Bft)
30.08.2016 04:54 16,2 C 81 % 1022,4 hPa 0,0 l/m 7,0 km/h (2 Bft) W 264 0 min 0 W/m 12,9 C 15,9 C 16,1 km/h (3 Bft)
30.08.2016 04:57 16,2 C 81 % 1022,4 hPa 0,0 l/m 6,7 km/h (2 Bft) W-NW 283 0 min 0 W/m 12,9 C 16,1 C 14,5 km/h (3 Bft)
30.08.2016 05:00 16,3 C 80 % 1022,4 hPa 0,0 l/m 7,9 km/h (2 Bft) W 267 0 min 0 W/m 12,8 C 15,5 C 12,9 km/h (3 Bft)
30.08.2016 05:03 16,2 C 80 % 1022,4 hPa 0,0 l/m 5,7 km/h (2 Bft) W 269 0 min 0 W/m 12,7 C 16,2 C 12,9 km/h (3 Bft)
30.08.2016 05:06 16,2 C 81 % 1022,5 hPa 0,0 l/m 7,9 km/h (2 Bft) W 275 0 min 0 W/m 12,9 C 15,4 C 16,1 km/h (3 Bft)
30.08.2016 05:09 16,2 C 81 % 1022,5 hPa 0,0 l/m 6,6 km/h (2 Bft) SW 234 0 min 0 W/m 12,9 C 16,1 C 11,3 km/h (2 Bft)
30.08.2016 05:12 16,2 C 81 % 1022,5 hPa 0,0 l/m 5,2 km/h (1 Bft) W-NW 286 0 min 0 W/m 12,9 C 16,2 C 12,9 km/h (3 Bft)
30.08.2016 05:15 16,2 C 82 % 1022,5 hPa 0,0 l/m 5,4 km/h (2 Bft) W-NW 287 0 min 0 W/m 13,1 C 16,2 C 14,5 km/h (3 Bft)
30.08.2016 05:18 16,1 C 82 % 1022,6 hPa 0,0 l/m 4,7 km/h (1 Bft) W 280 0 min 0 W/m 13,0 C 16,1 C 9,7 km/h (2 Bft)
30.08.2016 05:21 16,1 C 82 % 1022,6 hPa 0,0 l/m 5,4 km/h (2 Bft) W-NW 284 0 min 0 W/m 13,0 C 16,1 C 12,9 km/h (3 Bft)
30.08.2016 05:24 16,1 C 82 % 1022,6 hPa 0,0 l/m 4,4 km/h (1 Bft) W 261 0 min 0 W/m 13,0 C 16,1 C 9,7 km/h (2 Bft)
30.08.2016 05:27 16,1 C 82 % 1022,6 hPa 0,0 l/m 4,7 km/h (1 Bft) W 271 0 min 0 W/m 13,0 C 16,1 C 11,3 km/h (2 Bft)
30.08.2016 05:30 16,1 C 83 % 1022,6 hPa 0,0 l/m 3,1 km/h (1 Bft) W 263 0 min 0 W/m 13,2 C 16,1 C 6,4 km/h (2 Bft)
30.08.2016 05:33 16,1 C 84 % 1022,6 hPa 0,0 l/m 3,8 km/h (1 Bft) W 271 0 min 0 W/m 13,4 C 16,1 C 6,4 km/h (2 Bft)
30.08.2016 05:36 16,2 C 84 % 1022,6 hPa 0,0 l/m 4,1 km/h (1 Bft) W-SW 243 0 min 0 W/m 13,5 C 16,2 C 9,7 km/h (2 Bft)
30.08.2016 05:39 16,2 C 84 % 1022,6 hPa 0,0 l/m 3,4 km/h (1 Bft) W 261 0 min 0 W/m 13,5 C 16,2 C 6,4 km/h (2 Bft)
30.08.2016 05:42 16,2 C 84 % 1022,6 hPa 0,0 l/m 3,1 km/h (1 Bft) SW 236 0 min 0 W/m 13,5 C 16,2 C 6,4 km/h (2 Bft)
30.08.2016 05:45 16,3 C 85 % 1022,6 hPa 0,0 l/m 3,4 km/h (1 Bft) SW 227 0 min 0 W/m 13,8 C 16,3 C 6,4 km/h (2 Bft)
30.08.2016 05:48 16,3 C 85 % 1022,7 hPa 0,0 l/m 4,4 km/h (1 Bft) SW 226 0 min 0 W/m 13,8 C 16,3 C 6,4 km/h (2 Bft)
30.08.2016 05:51 16,2 C 86 % 1022,7 hPa 0,0 l/m 4,8 km/h (1 Bft) SW 217 0 min 0 W/m 13,9 C 16,2 C 9,7 km/h (2 Bft)
30.08.2016 05:54 16,2 C 86 % 1022,6 hPa 0,0 l/m 5,7 km/h (2 Bft) S-SW 213 0 min 0 W/m 13,9 C 16,2 C 9,7 km/h (2 Bft)
30.08.2016 05:57 16,2 C 87 % 1022,7 hPa 0,0 l/m 7,2 km/h (2 Bft) W-SW 240 0 min 0 W/m 14,0 C 15,8 C 9,7 km/h (2 Bft)
30.08.2016 06:00 16,2 C 87 % 1022,7 hPa 0,0 l/m 9,3 km/h (2 Bft) W-SW 246 0 min 0 W/m 14,0 C 14,7 C 16,1 km/h (3 Bft)
30.08.2016 06:03 16,2 C 87 % 1022,7 hPa 0,0 l/m 7,9 km/h (2 Bft) W-SW 249 0 min 0 W/m 14,0 C 15,4 C 12,9 km/h (3 Bft)
30.08.2016 06:06 16,2 C 87 % 1022,7 hPa 0,0 l/m 7,8 km/h (2 Bft) S-SW 211 0 min 0 W/m 14,0 C 15,5 C 14,5 km/h (3 Bft)
30.08.2016 06:09 16,1 C 87 % 1022,8 hPa 0,0 l/m 6,2 km/h (2 Bft) SW 236 0 min 0 W/m 13,9 C 16,1 C 14,5 km/h (3 Bft)
30.08.2016 06:12 16,1 C 87 % 1022,8 hPa 0,0 l/m 9,3 km/h (2 Bft) W-SW 246 0 min 0 W/m 13,9 C 14,6 C 17,7 km/h (3 Bft)
30.08.2016 06:15 16,0 C 87 % 1022,8 hPa 0,0 l/m 8,0 km/h (2 Bft) S-SW 207 0 min 0 W/m 13,8 C 15,2 C 14,5 km/h (3 Bft)
30.08.2016 06:18 15,9 C 87 % 1022,8 hPa 0,0 l/m 9,0 km/h (2 Bft) SW 234 0 min 0 W/m 13,7 C 14,6 C 16,1 km/h (3 Bft)
30.08.2016 06:21 15,9 C 87 % 1022,8 hPa 0,0 l/m 9,1 km/h (2 Bft) SW 223 0 min 0 W/m 13,7 C 14,5 C 16,1 km/h (3 Bft)
30.08.2016 06:24 15,8 C 87 % 1022,9 hPa 0,0 l/m 8,4 km/h (2 Bft) SW 229 0 min 0 W/m 13,6 C 14,7 C 14,5 km/h (3 Bft)
30.08.2016 06:27 15,8 C 87 % 1022,9 hPa 0,0 l/m 9,5 km/h (2 Bft) W-SW 239 0 min 0 W/m 13,6 C 14,2 C 16,1 km/h (3 Bft)
30.08.2016 06:30 15,7 C 87 % 1022,9 hPa 0,0 l/m 10,4 km/h (2 Bft) SW 220 0 min 0 W/m 13,5 C 13,7 C 20,9 km/h (4 Bft)
30.08.2016 06:33 15,7 C 88 % 1022,9 hPa 0,0 l/m 10,4 km/h (2 Bft) SW 219 0 min 0 W/m 13,7 C 13,7 C 16,1 km/h (3 Bft)
30.08.2016 06:36 15,6 C 88 % 1022,8 hPa 0,0 l/m 8,4 km/h (2 Bft) W-SW 242 0 min 0 W/m 13,6 C 14,5 C 14,5 km/h (3 Bft)
30.08.2016 06:39 15,6 C 88 % 1023,0 hPa 0,0 l/m 7,9 km/h (2 Bft) S-SW 211 0 min 0 W/m 13,6 C 14,8 C 12,9 km/h (3 Bft)
30.08.2016 06:42 15,6 C 88 % 1022,9 hPa 0,0 l/m 8,7 km/h (2 Bft) SW 226 0 min 0 W/m 13,6 C 14,4 C 12,9 km/h (3 Bft)
30.08.2016 06:45 15,5 C 88 % 1022,9 hPa 0,0 l/m 10,7 km/h (2 Bft) S-SW 205 0 min 5 W/m 13,5 C 13,4 C 17,7 km/h (3 Bft)
30.08.2016 06:48 15,5 C 88 % 1023,0 hPa 0,0 l/m 10,2 km/h (2 Bft) SW 216 0 min 5 W/m 13,5 C 13,6 C 16,1 km/h (3 Bft)
30.08.2016 06:51 15,5 C 88 % 1022,9 hPa 0,0 l/m 9,1 km/h (2 Bft) SW 223 0 min 7 W/m 13,5 C 14,1 C 12,9 km/h (3 Bft)
30.08.2016 06:54 15,5 C 88 % 1023,0 hPa 0,0 l/m 8,1 km/h (2 Bft) SW 222 0 min 14 W/m 13,5 C 14,6 C 12,9 km/h (3 Bft)
30.08.2016 06:57 15,4 C 89 % 1023,0 hPa 0,0 l/m 7,1 km/h (2 Bft) SW 233 0 min 12 W/m 13,6 C 15,0 C 9,7 km/h (2 Bft)
30.08.2016 07:00 15,4 C 89 % 1023,0 hPa 0,0 l/m 6,8 km/h (2 Bft) SW 236 0 min 14 W/m 13,6 C 15,2 C 9,7 km/h (2 Bft)
30.08.2016 07:03 15,4 C 89 % 1023,0 hPa 0,0 l/m 6,6 km/h (2 Bft) SW 226 0 min 12 W/m 13,6 C 15,3 C 11,3 km/h (2 Bft)
30.08.2016 07:06 15,4 C 90 % 1023,0 hPa 0,0 l/m 7,0 km/h (2 Bft) SW 236 0 min 12 W/m 13,8 C 15,1 C 11,3 km/h (2 Bft)
30.08.2016 07:09 15,4 C 90 % 1023,0 hPa 0,0 l/m 7,4 km/h (2 Bft) SW 218 0 min 16 W/m 13,8 C 14,8 C 11,3 km/h (2 Bft)
30.08.2016 07:12 15,4 C 90 % 1023,0 hPa 0,0 l/m 8,0 km/h (2 Bft) SW 217 0 min 16 W/m 13,8 C 14,5 C 14,5 km/h (3 Bft)
30.08.2016 07:15 15,4 C 90 % 1022,9 hPa 0,0 l/m 6,9 km/h (2 Bft) SW 228 0 min 14 W/m 13,8 C 15,1 C 11,3 km/h (2 Bft)
30.08.2016 07:18 15,4 C 90 % 1022,9 hPa 0,0 l/m 8,8 km/h (2 Bft) S-SW 198 0 min 12 W/m 13,8 C 14,1 C 16,1 km/h (3 Bft)
30.08.2016 07:21 15,4 C 90 % 1022,9 hPa 0,0 l/m 7,8 km/h (2 Bft) S-SW 212 0 min 12 W/m 13,8 C 14,6 C 12,9 km/h (3 Bft)
30.08.2016 07:24 15,4 C 90 % 1023,0 hPa 0,0 l/m 9,2 km/h (2 Bft) SW 217 0 min 12 W/m 13,8 C 13,9 C 14,5 km/h (3 Bft)
30.08.2016 07:27 15,5 C 90 % 1023,0 hPa 0,0 l/m 9,4 km/h (2 Bft) SW 216 0 min 12 W/m 13,9 C 13,9 C 19,3 km/h (3 Bft)
30.08.2016 07:30 15,6 C 90 % 1023,0 hPa 0,0 l/m 8,4 km/h (2 Bft) W-SW 237 0 min 12 W/m 14,0 C 14,5 C 14,5 km/h (3 Bft)
30.08.2016 07:33 15,6 C 90 % 1023,1 hPa 0,0 l/m 9,0 km/h (2 Bft) W-SW 247 0 min 14 W/m 14,0 C 14,2 C 19,3 km/h (3 Bft)
30.08.2016 07:36 15,6 C 90 % 1023,0 hPa 0,0 l/m 8,6 km/h (2 Bft) SW 225 0 min 14 W/m 14,0 C 14,4 C 16,1 km/h (3 Bft)
30.08.2016 07:39 15,6 C 90 % 1023,0 hPa 0,0 l/m 10,1 km/h (2 Bft) S-SW 195 0 min 14 W/m 14,0 C 13,7 C 14,5 km/h (3 Bft)
30.08.2016 07:42 15,7 C 90 % 1023,1 hPa 0,0 l/m 8,0 km/h (2 Bft) S-SW 211 0 min 16 W/m 14,1 C 14,8 C 12,9 km/h (3 Bft)
30.08.2016 07:45 15,7 C 90 % 1023,1 hPa 0,0 l/m 8,3 km/h (2 Bft) SW 234 0 min 16 W/m 14,1 C 14,7 C 16,1 km/h (3 Bft)
30.08.2016 07:48 15,8 C 90 % 1023,1 hPa 0,0 l/m 9,0 km/h (2 Bft) W-SW 252 0 min 18 W/m 14,2 C 14,5 C 16,1 km/h (3 Bft)
30.08.2016 07:51 15,8 C 90 % 1023,2 hPa 0,0 l/m 8,7 km/h (2 Bft) SW 235 0 min 19 W/m 14,2 C 14,6 C 14,5 km/h (3 Bft)
30.08.2016 07:54 15,9 C 90 % 1023,2 hPa 0,0 l/m 9,7 km/h (2 Bft) W 276 0 min 18 W/m 14,3 C 14,2 C 16,1 km/h (3 Bft)
30.08.2016 07:57 15,9 C 90 % 1023,1 hPa 0,0 l/m 11,3 km/h (2 Bft) W-SW 246 0 min 18 W/m 14,3 C 13,6 C 16,1 km/h (3 Bft)
30.08.2016 08:00 15,9 C 90 % 1023,2 hPa 0,0 l/m 9,9 km/h (2 Bft) SW 229 0 min 18 W/m 14,3 C 14,2 C 16,1 km/h (3 Bft)
30.08.2016 08:03 15,9 C 89 % 1023,1 hPa 0,0 l/m 10,4 km/h (2 Bft) W-SW 240 0 min 18 W/m 14,1 C 13,9 C 14,5 km/h (3 Bft)
30.08.2016 08:06 15,9 C 89 % 1023,2 hPa 0,0 l/m 10,8 km/h (2 Bft) W-SW 254 0 min 19 W/m 14,1 C 13,8 C 17,7 km/h (3 Bft)
30.08.2016 08:09 15,9 C 89 % 1023,2 hPa 0,0 l/m 9,6 km/h (2 Bft) SW 229 0 min 23 W/m 14,1 C 14,3 C 14,5 km/h (3 Bft)
30.08.2016 08:12 16,0 C 89 % 1023,3 hPa 0,0 l/m 9,5 km/h (2 Bft) W-SW 238 0 min 26 W/m 14,2 C 14,4 C 14,5 km/h (3 Bft)
30.08.2016 08:15 16,1 C 89 % 1023,3 hPa 0,0 l/m 12,5 km/h (2 Bft) W-SW 257 0 min 21 W/m 14,3 C 13,4 C 22,5 km/h (4 Bft)
30.08.2016 08:18 16,1 C 89 % 1023,2 hPa 0,0 l/m 11,1 km/h (2 Bft) SW 223 0 min 19 W/m 14,3 C 13,9 C 17,7 km/h (3 Bft)
30.08.2016 08:21 16,1 C 89 % 1023,2 hPa 0,0 l/m 9,8 km/h (2 Bft) SW 217 0 min 21 W/m 14,3 C 14,4 C 17,7 km/h (3 Bft)
30.08.2016 08:24 16,2 C 89 % 1023,3 hPa 0,0 l/m 10,5 km/h (2 Bft) SW 223 0 min 21 W/m 14,4 C 14,2 C 16,1 km/h (3 Bft)
30.08.2016 08:27 16,2 C 89 % 1023,3 hPa 0,0 l/m 10,2 km/h (2 Bft) SW 229 0 min 21 W/m 14,4 C 14,4 C 17,7 km/h (3 Bft)
30.08.2016 08:30 16,2 C 88 % 1023,4 hPa 0,0 l/m 11,7 km/h (2 Bft) SW 234 0 min 21 W/m 14,2 C 13,8 C 17,7 km/h (3 Bft)
30.08.2016 08:33 16,3 C 88 % 1023,3 hPa 0,0 l/m 8,6 km/h (2 Bft) SW 214 0 min 23 W/m 14,3 C 15,2 C 16,1 km/h (3 Bft)
30.08.2016 08:36 16,3 C 88 % 1023,3 hPa 0,0 l/m 10,4 km/h (2 Bft) S 178 0 min 25 W/m 14,3 C 14,4 C 16,1 km/h (3 Bft)
30.08.2016 08:39 16,4 C 88 % 1023,4 hPa 0,0 l/m 10,9 km/h (2 Bft) W-SW 253 0 min 47 W/m 14,4 C 14,3 C 17,7 km/h (3 Bft)
30.08.2016 08:42 16,5 C 88 % 1023,4 hPa 0,0 l/m 8,7 km/h (2 Bft) SW 217 0 min 90 W/m 14,5 C 15,3 C 17,7 km/h (3 Bft)
30.08.2016 08:45 16,6 C 87 % 1023,5 hPa 0,0 l/m 9,0 km/h (2 Bft) SW 219 0 min 60 W/m 14,4 C 15,3 C 16,1 km/h (3 Bft)
30.08.2016 08:48 16,7 C 87 % 1023,5 hPa 0,0 l/m 9,5 km/h (2 Bft) W-SW 239 0 min 39 W/m 14,5 C 15,2 C 19,3 km/h (3 Bft)
30.08.2016 08:51 16,7 C 87 % 1023,6 hPa 0,0 l/m 9,3 km/h (2 Bft) SW 215 0 min 26 W/m 14,5 C 15,3 C 14,5 km/h (3 Bft)
30.08.2016 08:54 16,6 C 87 % 1023,5 hPa 0,0 l/m 10,9 km/h (2 Bft) SW 225 0 min 23 W/m 14,4 C 14,5 C 16,1 km/h (3 Bft)
30.08.2016 08:57 16,5 C 87 % 1023,6 hPa 0,0 l/m 9,8 km/h (2 Bft) W 269 0 min 26 W/m 14,3 C 14,9 C 19,3 km/h (3 Bft)
30.08.2016 09:00 16,5 C 88 % 1023,6 hPa 0,0 l/m 9,9 km/h (2 Bft) S-SW 212 0 min 26 W/m 14,5 C 14,8 C 17,7 km/h (3 Bft)
30.08.2016 09:03 16,6 C 88 % 1023,6 hPa 0,0 l/m 11,9 km/h (2 Bft) SW 217 0 min 26 W/m 14,6 C 14,2 C 22,5 km/h (4 Bft)
30.08.2016 09:06 16,7 C 87 % 1023,6 hPa 0,0 l/m 12,7 km/h (3 Bft) SW 226 0 min 37 W/m 14,5 C 14,0 C 20,9 km/h (4 Bft)
30.08.2016 09:09 16,7 C 87 % 1023,6 hPa 0,0 l/m 13,0 km/h (3 Bft) SW 225 0 min 28 W/m 14,5 C 13,9 C 22,5 km/h (4 Bft)
30.08.2016 09:12 16,8 C 87 % 1023,6 hPa 0,0 l/m 10,7 km/h (2 Bft) W-SW 250 0 min 28 W/m 14,6 C 14,8 C 19,3 km/h (3 Bft)
30.08.2016 09:15 16,9 C 87 % 1023,7 hPa 0,0 l/m 9,9 km/h (2 Bft) SW 232 0 min 28 W/m 14,7 C 15,3 C 17,7 km/h (3 Bft)
30.08.2016 09:18 17,0 C 87 % 1023,7 hPa 0,0 l/m 10,6 km/h (2 Bft) SW 236 0 min 33 W/m 14,8 C 15,1 C 17,7 km/h (3 Bft)
30.08.2016 09:21 17,1 C 87 % 1023,7 hPa 0,0 l/m 9,7 km/h (2 Bft) SW 229 0 min 30 W/m 14,9 C 15,6 C 19,3 km/h (3 Bft)
30.08.2016 09:24 17,1 C 86 % 1023,8 hPa 0,0 l/m 10,4 km/h (2 Bft) W 259 0 min 30 W/m 14,7 C 15,3 C 22,5 km/h (4 Bft)
30.08.2016 09:27 17,1 C 86 % 1023,7 hPa 0,0 l/m 12,8 km/h (3 Bft) W-SW 247 0 min 30 W/m 14,7 C 14,4 C 19,3 km/h (3 Bft)
30.08.2016 09:30 17,2 C 86 % 1023,8 hPa 0,0 l/m 11,3 km/h (2 Bft) W 274 0 min 33 W/m 14,8 C 15,1 C 22,5 km/h (4 Bft)
30.08.2016 09:33 17,2 C 85 % 1023,8 hPa 0,0 l/m 12,6 km/h (3 Bft) SW 219 0 min 37 W/m 14,7 C 14,6 C 22,5 km/h (4 Bft)
30.08.2016 09:36 17,2 C 85 % 1023,9 hPa 0,0 l/m 13,5 km/h (3 Bft) SW 234 0 min 35 W/m 14,7 C 14,3 C 20,9 km/h (4 Bft)
30.08.2016 09:39 17,2 C 85 % 1023,9 hPa 0,0 l/m 9,7 km/h (2 Bft) W 261 0 min 33 W/m 14,7 C 15,7 C 17,7 km/h (3 Bft)
30.08.2016 09:42 17,2 C 85 % 1023,9 hPa 0,0 l/m 12,0 km/h (2 Bft) SW 219 0 min 86 W/m 14,7 C 14,8 C 24,1 km/h (4 Bft)
30.08.2016 09:45 17,3 C 85 % 1023,9 hPa 0,0 l/m 11,8 km/h (2 Bft) SW 236 0 min 35 W/m 14,8 C 15,0 C 24,1 km/h (4 Bft)
30.08.2016 09:48 17,3 C 85 % 1023,9 hPa 0,0 l/m 11,5 km/h (2 Bft) W-SW 250 0 min 37 W/m 14,8 C 15,1 C 20,9 km/h (4 Bft)
30.08.2016 09:51 17,4 C 85 % 1024,0 hPa 0,0 l/m 13,7 km/h (3 Bft) S-SW 203 0 min 42 W/m 14,8 C 14,5 C 20,9 km/h (4 Bft)
30.08.2016 09:54 17,5 C 84 % 1024,0 hPa 0,0 l/m 12,0 km/h (2 Bft) SW 223 0 min 105 W/m 14,8 C 15,2 C 19,3 km/h (3 Bft)
30.08.2016 09:57 17,6 C 84 % 1024,1 hPa 0,0 l/m 14,3 km/h (3 Bft) SW 215 0 min 49 W/m 14,9 C 14,5 C 20,9 km/h (4 Bft)
30.08.2016 10:00 17,7 C 85 % 1024,1 hPa 0,0 l/m 12,7 km/h (3 Bft) S 181 0 min 39 W/m 15,1 C 15,2 C 17,7 km/h (3 Bft)
30.08.2016 10:03 17,8 C 85 % 1024,1 hPa 0,0 l/m 11,1 km/h (2 Bft) W 265 0 min 40 W/m 15,2 C 15,8 C 17,7 km/h (3 Bft)
30.08.2016 10:06 17,8 C 85 % 1024,1 hPa 0,0 l/m 9,0 km/h (2 Bft) SW 232 0 min 40 W/m 15,2 C 16,6 C 16,1 km/h (3 Bft)
30.08.2016 10:09 17,9 C 85 % 1024,1 hPa 0,0 l/m 9,2 km/h (2 Bft) SW 224 0 min 40 W/m 15,3 C 16,6 C 16,1 km/h (3 Bft)
30.08.2016 10:12 17,9 C 83 % 1024,1 hPa 0,0 l/m 11,7 km/h (2 Bft) W-SW 239 0 min 40 W/m 15,0 C 15,7 C 19,3 km/h (3 Bft)
30.08.2016 10:15 17,9 C 83 % 1024,2 hPa 0,0 l/m 12,4 km/h (2 Bft) SW 234 0 min 40 W/m 15,0 C 15,5 C 24,1 km/h (4 Bft)
30.08.2016 10:18 17,9 C 83 % 1024,2 hPa 0,0 l/m 10,1 km/h (2 Bft) SW 223 0 min 44 W/m 15,0 C 16,3 C 20,9 km/h (4 Bft)
30.08.2016 10:21 17,9 C 83 % 1024,2 hPa 0,0 l/m 11,5 km/h (2 Bft) W-SW 258 0 min 53 W/m 15,0 C 15,8 C 19,3 km/h (3 Bft)
30.08.2016 10:24 17,9 C 83 % 1024,3 hPa 0,0 l/m 11,7 km/h (2 Bft) SW 236 0 min 42 W/m 15,0 C 15,7 C 20,9 km/h (4 Bft)
30.08.2016 10:27 17,9 C 84 % 1024,3 hPa 0,0 l/m 10,8 km/h (2 Bft) W-SW 242 0 min 44 W/m 15,2 C 16,0 C 22,5 km/h (4 Bft)
30.08.2016 10:30 17,9 C 83 % 1024,3 hPa 0,0 l/m 14,7 km/h (3 Bft) SW 236 0 min 44 W/m 15,0 C 14,8 C 24,1 km/h (4 Bft)
30.08.2016 10:33 17,9 C 83 % 1024,3 hPa 0,0 l/m 12,4 km/h (2 Bft) W-SW 257 0 min 47 W/m 15,0 C 15,5 C 19,3 km/h (3 Bft)
30.08.2016 10:36 18,1 C 84 % 1024,4 hPa 0,0 l/m 12,8 km/h (3 Bft) W-SW 241 0 min 49 W/m 15,4 C 15,6 C 22,5 km/h (4 Bft)
30.08.2016 10:39 18,0 C 83 % 1024,4 hPa 0,0 l/m 12,6 km/h (3 Bft) SW 235 0 min 46 W/m 15,1 C 15,5 C 20,9 km/h (4 Bft)
30.08.2016 10:42 18,0 C 83 % 1024,6 hPa 0,0 l/m 13,1 km/h (3 Bft) S-SW 193 0 min 47 W/m 15,1 C 15,4 C 20,9 km/h (4 Bft)
30.08.2016 10:45 18,1 C 83 % 1024,6 hPa 0,0 l/m 9,8 km/h (2 Bft) W-SW 256 0 min 49 W/m 15,2 C 16,6 C 20,9 km/h (4 Bft)
30.08.2016 10:48 18,2 C 83 % 1024,6 hPa 0,0 l/m 13,1 km/h (3 Bft) SW 225 0 min 65 W/m 15,3 C 15,6 C 17,7 km/h (3 Bft)
30.08.2016 10:51 18,3 C 83 % 1024,6 hPa 0,0 l/m 14,5 km/h (3 Bft) SW 236 0 min 151 W/m 15,4 C 15,3 C 22,5 km/h (4 Bft)
30.08.2016 10:54 18,5 C 84 % 1024,6 hPa 0,0 l/m 11,1 km/h (2 Bft) W-SW 240 0 min 135 W/m 15,7 C 16,6 C 17,7 km/h (3 Bft)
30.08.2016 10:57 18,7 C 83 % 1024,7 hPa 0,0 l/m 11,5 km/h (2 Bft) SW 221 0 min 113 W/m 15,8 C 16,7 C 22,5 km/h (4 Bft)
30.08.2016 11:00 18,8 C 81 % 1024,6 hPa 0,0 l/m 12,1 km/h (2 Bft) S-SW 212 0 min 123 W/m 15,5 C 16,6 C 22,5 km/h (4 Bft)
30.08.2016 11:03 18,8 C 83 % 1024,6 hPa 0,0 l/m 12,0 km/h (2 Bft) SW 231 0 min 165 W/m 15,8 C 16,6 C 17,7 km/h (3 Bft)
30.08.2016 11:06 18,7 C 82 % 1024,7 hPa 0,0 l/m 14,8 km/h (3 Bft) SW 214 0 min 218 W/m 15,6 C 15,7 C 24,1 km/h (4 Bft)
30.08.2016 11:09 18,8 C 81 % 1024,7 hPa 0,0 l/m 15,0 km/h (3 Bft) W-SW 240 0 min 202 W/m 15,5 C 15,8 C 22,5 km/h (4 Bft)
30.08.2016 11:12 18,8 C 82 % 1024,7 hPa 0,0 l/m 13,2 km/h (3 Bft) S-SW 207 0 min 90 W/m 15,7 C 16,3 C 20,9 km/h (4 Bft)
30.08.2016 11:15 18,6 C 82 % 1024,8 hPa 0,0 l/m 10,5 km/h (2 Bft) W 261 0 min 76 W/m 15,5 C 16,9 C 19,3 km/h (3 Bft)
30.08.2016 11:18 18,4 C 82 % 1024,8 hPa 0,0 l/m 9,4 km/h (2 Bft) S-SW 213 0 min 81 W/m 15,3 C 17,1 C 17,7 km/h (3 Bft)
30.08.2016 11:21 18,3 C 83 % 1024,8 hPa 0,0 l/m 12,8 km/h (3 Bft) SW 223 0 min 158 W/m 15,4 C 15,8 C 20,9 km/h (4 Bft)
30.08.2016 11:24 18,5 C 84 % 1024,8 hPa 0,0 l/m 14,7 km/h (3 Bft) SW 234 0 min 174 W/m 15,7 C 15,5 C 22,5 km/h (4 Bft)
30.08.2016 11:27 18,8 C 82 % 1024,8 hPa 0,0 l/m 10,6 km/h (2 Bft) S-SW 200 0 min 139 W/m 15,7 C 17,1 C 20,9 km/h (4 Bft)
30.08.2016 11:30 19,0 C 82 % 1024,9 hPa 0,0 l/m 14,5 km/h (3 Bft) W-SW 238 0 min 137 W/m 15,9 C 16,2 C 24,1 km/h (4 Bft)
30.08.2016 11:33 18,9 C 81 % 1024,9 hPa 0,0 l/m 15,3 km/h (3 Bft) S-SW 209 0 min 77 W/m 15,6 C 15,8 C 20,9 km/h (4 Bft)
30.08.2016 11:36 18,9 C 81 % 1024,9 hPa 0,0 l/m 14,0 km/h (3 Bft) SW 229 0 min 72 W/m 15,6 C 16,2 C 20,9 km/h (4 Bft)
30.08.2016 11:39 19,0 C 82 % 1024,8 hPa 0,0 l/m 11,3 km/h (2 Bft) W-NW 285 0 min 77 W/m 15,9 C 17,1 C 17,7 km/h (3 Bft)
30.08.2016 11:42 19,1 C 81 % 1024,9 hPa 0,0 l/m 10,6 km/h (2 Bft) S-SW 200 0 min 84 W/m 15,8 C 17,4 C 20,9 km/h (4 Bft)
30.08.2016 11:45 19,0 C 80 % 1024,9 hPa 0,0 l/m 14,6 km/h (3 Bft) S-SW 212 0 min 81 W/m 15,5 C 16,1 C 20,9 km/h (4 Bft)
30.08.2016 11:48 18,9 C 81 % 1024,9 hPa 0,0 l/m 13,8 km/h (3 Bft) S-SW 203 0 min 97 W/m 15,6 C 16,2 C 19,3 km/h (3 Bft)
30.08.2016 11:51 18,8 C 81 % 1024,9 hPa 0,0 l/m 11,2 km/h (2 Bft) SW 227 0 min 174 W/m 15,5 C 16,9 C 22,5 km/h (4 Bft)
30.08.2016 11:54 18,9 C 81 % 1024,9 hPa 0,0 l/m 9,4 km/h (2 Bft) W-SW 254 0 min 79 W/m 15,6 C 17,6 C 14,5 km/h (3 Bft)
30.08.2016 11:57 19,2 C 82 % 1024,9 hPa 0,0 l/m 9,1 km/h (2 Bft) S-SW 207 0 min 123 W/m 16,0 C 18,1 C 17,7 km/h (3 Bft)
30.08.2016 12:00 19,2 C 80 % 1024,9 hPa 0,0 l/m 13,8 km/h (3 Bft) SW 231 3 min 633 W/m 15,7 C 16,6 C 20,9 km/h (4 Bft)
30.08.2016 12:03 19,2 C 80 % 1024,9 hPa 0,0 l/m 14,4 km/h (3 Bft) W-SW 249 3 min 636 W/m 15,7 C 16,4 C 20,9 km/h (4 Bft)
30.08.2016 12:06 19,2 C 82 % 1024,9 hPa 0,0 l/m 11,3 km/h (2 Bft) SW 224 3 min 601 W/m 16,0 C 17,3 C 17,7 km/h (3 Bft)
30.08.2016 12:09 19,2 C 80 % 1024,9 hPa 0,0 l/m 12,6 km/h (3 Bft) SW 236 3 min 647 W/m 15,7 C 16,9 C 20,9 km/h (4 Bft)
30.08.2016 12:12 19,1 C 80 % 1024,9 hPa 0,0 l/m 12,9 km/h (3 Bft) W 267 3 min 636 W/m 15,6 C 16,7 C 22,5 km/h (4 Bft)
30.08.2016 12:15 19,2 C 80 % 1024,9 hPa 0,0 l/m 12,9 km/h (3 Bft) W 267 3 min 647 W/m 15,7 C 16,8 C 19,3 km/h (3 Bft)
30.08.2016 12:18 19,3 C 80 % 1024,9 hPa 0,0 l/m 12,6 km/h (3 Bft) W 263 3 min 652 W/m 15,8 C 17,0 C 22,5 km/h (4 Bft)
30.08.2016 12:21 19,4 C 79 % 1024,9 hPa 0,0 l/m 10,5 km/h (2 Bft) SW 216 3 min 693 W/m 15,7 C 17,8 C 20,9 km/h (4 Bft)
30.08.2016 12:24 19,4 C 80 % 1024,8 hPa 0,0 l/m 11,1 km/h (2 Bft) W 276 3 min 517 W/m 15,9 C 17,6 C 17,7 km/h (3 Bft)
30.08.2016 12:27 19,6 C 79 % 1024,9 hPa 0,0 l/m 9,9 km/h (2 Bft) W-SW 252 3 min 693 W/m 15,9 C 18,2 C 17,7 km/h (3 Bft)
30.08.2016 12:30 19,7 C 79 % 1024,9 hPa 0,0 l/m 11,1 km/h (2 Bft) SW 219 3 min 689 W/m 16,0 C 18,0 C 19,3 km/h (3 Bft)
30.08.2016 12:33 19,9 C 78 % 1024,9 hPa 0,0 l/m 10,5 km/h (2 Bft) SW 234 3 min 689 W/m 15,9 C 18,4 C 17,7 km/h (3 Bft)
30.08.2016 12:36 19,8 C 77 % 1024,9 hPa 0,0 l/m 10,4 km/h (2 Bft) S-SW 211 0 min 139 W/m 15,6 C 18,3 C 19,3 km/h (3 Bft)
30.08.2016 12:39 19,6 C 78 % 1024,9 hPa 0,0 l/m 11,5 km/h (2 Bft) SW 236 3 min 673 W/m 15,7 C 17,7 C 19,3 km/h (3 Bft)
30.08.2016 12:42 19,8 C 78 % 1024,9 hPa 0,0 l/m 10,6 km/h (2 Bft) SW 222 3 min 751 W/m 15,8 C 18,2 C 19,3 km/h (3 Bft)
30.08.2016 12:45 19,9 C 77 % 1024,9 hPa 0,0 l/m 11,3 km/h (2 Bft) W-SW 252 3 min 721 W/m 15,7 C 18,1 C 20,9 km/h (4 Bft)
30.08.2016 12:48 19,9 C 77 % 1024,9 hPa 0,0 l/m 11,4 km/h (2 Bft) W-NW 290 3 min 742 W/m 15,7 C 18,1 C 20,9 km/h (4 Bft)
30.08.2016 12:51 20,3 C 77 % 1024,9 hPa 0,0 l/m 9,4 km/h (2 Bft) W 271 3 min 693 W/m 16,1 C 19,2 C 17,7 km/h (3 Bft)
30.08.2016 12:54 20,6 C 75 % 1024,8 hPa 0,0 l/m 7,1 km/h (2 Bft) W-SW 251 3 min 671 W/m 16,0 C 20,3 C 16,1 km/h (3 Bft)
30.08.2016 12:57 20,6 C 75 % 1024,8 hPa 0,0 l/m 9,6 km/h (2 Bft) SW 221 3 min 698 W/m 16,0 C 19,4 C 19,3 km/h (3 Bft)
30.08.2016 13:00 20,4 C 75 % 1024,8 hPa 0,0 l/m 11,3 km/h (2 Bft) SW 235 3 min 698 W/m 15,8 C 18,7 C 19,3 km/h (3 Bft)
30.08.2016 13:03 20,3 C 76 % 1024,9 hPa 0,0 l/m 9,3 km/h (2 Bft) SW 225 3 min 754 W/m 15,9 C 19,2 C 17,7 km/h (3 Bft)
30.08.2016 13:06 20,0 C 75 % 1024,8 hPa 0,0 l/m 9,5 km/h (2 Bft) W-SW 240 3 min 754 W/m 15,4 C 18,8 C 17,7 km/h (3 Bft)
30.08.2016 13:09 20,3 C 75 % 1024,8 hPa 0,0 l/m 11,2 km/h (2 Bft) SW 236 3 min 684 W/m 15,7 C 18,6 C 19,3 km/h (3 Bft)
30.08.2016 13:12 20,6 C 75 % 1024,8 hPa 0,0 l/m 9,4 km/h (2 Bft) W 269 3 min 621 W/m 16,0 C 19,5 C 19,3 km/h (3 Bft)
30.08.2016 13:15 20,7 C 73 % 1024,9 hPa 0,0 l/m 12,4 km/h (2 Bft) W 273 3 min 652 W/m 15,7 C 18,7 C 17,7 km/h (3 Bft)
30.08.2016 13:18 20,7 C 77 % 1024,9 hPa 0,0 l/m 9,8 km/h (2 Bft) W-NW 286 3 min 564 W/m 16,5 C 19,5 C 17,7 km/h (3 Bft)
30.08.2016 13:21 21,0 C 73 % 1024,8 hPa 0,0 l/m 8,5 km/h (2 Bft) W-SW 253 3 min 561 W/m 16,0 C 20,2 C 17,7 km/h (3 Bft)
30.08.2016 13:24 20,9 C 72 % 1024,8 hPa 0,0 l/m 11,8 km/h (2 Bft) SW 232 3 min 543 W/m 15,7 C 19,1 C 22,5 km/h (4 Bft)
30.08.2016 13:27 20,8 C 73 % 1024,8 hPa 0,0 l/m 9,1 km/h (2 Bft) SW 236 3 min 575 W/m 15,8 C 19,8 C 17,7 km/h (3 Bft)
30.08.2016 13:30 20,6 C 74 % 1024,7 hPa 0,0 l/m 13,1 km/h (3 Bft) SW 231 3 min 517 W/m 15,8 C 18,4 C 19,3 km/h (3 Bft)
30.08.2016 13:33 20,6 C 73 % 1024,7 hPa 0,0 l/m 12,0 km/h (2 Bft) W-SW 253 3 min 629 W/m 15,6 C 18,7 C 19,3 km/h (3 Bft)
30.08.2016 13:36 20,7 C 72 % 1024,8 hPa 0,0 l/m 11,7 km/h (2 Bft) W 281 3 min 606 W/m 15,5 C 18,9 C 19,3 km/h (3 Bft)
30.08.2016 13:39 20,6 C 73 % 1024,8 hPa 0,0 l/m 9,8 km/h (2 Bft) S-SW 213 3 min 687 W/m 15,6 C 19,4 C 19,3 km/h (3 Bft)
30.08.2016 13:42 20,7 C 75 % 1024,8 hPa 0,0 l/m 12,3 km/h (2 Bft) W-SW 240 3 min 691 W/m 16,1 C 18,8 C 19,3 km/h (3 Bft)
30.08.2016 13:45 20,7 C 73 % 1024,8 hPa 0,0 l/m 10,2 km/h (2 Bft) S-SW 211 3 min 691 W/m 15,7 C 19,4 C 16,1 km/h (3 Bft)
30.08.2016 13:48 20,6 C 74 % 1024,8 hPa 0,0 l/m 10,4 km/h (2 Bft) SW 224 3 min 689 W/m 15,8 C 19,2 C 19,3 km/h (3 Bft)
30.08.2016 13:51 20,8 C 75 % 1024,8 hPa 0,0 l/m 13,7 km/h (3 Bft) W-SW 248 3 min 693 W/m 16,2 C 18,5 C 22,5 km/h (4 Bft)
30.08.2016 13:54 21,1 C 73 % 1024,8 hPa 0,0 l/m 7,7 km/h (2 Bft) W 267 3 min 696 W/m 16,1 C 20,6 C 17,7 km/h (3 Bft)
30.08.2016 13:57 21,3 C 70 % 1024,8 hPa 0,0 l/m 9,3 km/h (2 Bft) W-NW 294 3 min 686 W/m 15,6 C 20,3 C 16,1 km/h (3 Bft)
30.08.2016 14:00 21,3 C 71 % 1024,8 hPa 0,0 l/m 11,6 km/h (2 Bft) W 267 3 min 700 W/m 15,8 C 19,6 C 17,7 km/h (3 Bft)
30.08.2016 14:03 21,3 C 71 % 1024,8 hPa 0,0 l/m 9,5 km/h (2 Bft) SW 222 3 min 689 W/m 15,8 C 20,2 C 17,7 km/h (3 Bft)
30.08.2016 14:06 21,2 C 71 % 1024,8 hPa 0,0 l/m 12,1 km/h (2 Bft) W 265 3 min 698 W/m 15,7 C 19,4 C 17,7 km/h (3 Bft)
30.08.2016 14:09 21,2 C 72 % 1024,8 hPa 0,0 l/m 10,4 km/h (2 Bft) W 279 3 min 693 W/m 15,9 C 19,8 C 24,1 km/h (4 Bft)
30.08.2016 14:12 21,3 C 71 % 1024,8 hPa 0,0 l/m 12,1 km/h (2 Bft) SW 227 3 min 687 W/m 15,8 C 19,5 C 17,7 km/h (3 Bft)
30.08.2016 14:15 21,0 C 72 % 1024,7 hPa 0,0 l/m 11,2 km/h (2 Bft) S-SW 208 3 min 694 W/m 15,8 C 19,4 C 19,3 km/h (3 Bft)
30.08.2016 14:18 20,8 C 72 % 1024,7 hPa 0,0 l/m 13,7 km/h (3 Bft) W 268 3 min 694 W/m 15,6 C 18,5 C 22,5 km/h (4 Bft)
30.08.2016 14:21 20,7 C 72 % 1024,8 hPa 0,0 l/m 11,9 km/h (2 Bft) W 267 3 min 703 W/m 15,5 C 18,9 C 22,5 km/h (4 Bft)
30.08.2016 14:24 21,1 C 76 % 1024,8 hPa 0,0 l/m 12,0 km/h (2 Bft) W-SW 238 3 min 686 W/m 16,7 C 19,3 C 19,3 km/h (3 Bft)
30.08.2016 14:27 21,3 C 71 % 1024,8 hPa 0,0 l/m 10,9 km/h (2 Bft) W-SW 256 3 min 689 W/m 15,8 C 19,8 C 17,7 km/h (3 Bft)
30.08.2016 14:30 21,1 C 73 % 1024,8 hPa 0,0 l/m 13,5 km/h (3 Bft) S-SW 212 3 min 671 W/m 16,1 C 18,9 C 19,3 km/h (3 Bft)
30.08.2016 14:33 20,7 C 74 % 1024,8 hPa 0,0 l/m 9,4 km/h (2 Bft) S-SW 207 3 min 682 W/m 15,9 C 19,6 C 17,7 km/h (3 Bft)
30.08.2016 14:36 20,8 C 72 % 1024,8 hPa 0,0 l/m 10,0 km/h (2 Bft) W-SW 252 3 min 696 W/m 15,6 C 19,5 C 16,1 km/h (3 Bft)
30.08.2016 14:39 21,0 C 71 % 1024,8 hPa 0,0 l/m 9,7 km/h (2 Bft) W-SW 243 3 min 671 W/m 15,5 C 19,8 C 17,7 km/h (3 Bft)
30.08.2016 14:42 21,2 C 73 % 1024,8 hPa 0,0 l/m 9,9 km/h (2 Bft) W 272 3 min 673 W/m 16,2 C 20,0 C 22,5 km/h (4 Bft)
30.08.2016 14:45 21,4 C 73 % 1024,8 hPa 0,0 l/m 6,2 km/h (2 Bft) W-SW 246 3 min 666 W/m 16,4 C 21,4 C 19,3 km/h (3 Bft)
30.08.2016 14:48 21,3 C 71 % 1024,7 hPa 0,0 l/m 9,9 km/h (2 Bft) S-SW 211 3 min 661 W/m 15,8 C 20,1 C 20,9 km/h (4 Bft)
30.08.2016 14:51 21,3 C 70 % 1024,7 hPa 0,0 l/m 10,1 km/h (2 Bft) S-SW 211 3 min 668 W/m 15,6 C 20,0 C 19,3 km/h (3 Bft)
30.08.2016 14:54 21,2 C 71 % 1024,7 hPa 0,0 l/m 7,0 km/h (2 Bft) W-SW 239 3 min 661 W/m 15,7 C 21,0 C 16,1 km/h (3 Bft)
30.08.2016 14:57 21,6 C 72 % 1024,8 hPa 0,0 l/m 7,8 km/h (2 Bft) W 277 3 min 661 W/m 16,3 C 21,1 C 14,5 km/h (3 Bft)
30.08.2016 15:00 21,6 C 72 % 1024,7 hPa 0,0 l/m 8,7 km/h (2 Bft) W-SW 239 3 min 650 W/m 16,3 C 20,8 C 16,1 km/h (3 Bft)
30.08.2016 15:03 21,6 C 70 % 1024,7 hPa 0,0 l/m 8,9 km/h (2 Bft) SW 236 3 min 647 W/m 15,9 C 20,7 C 19,3 km/h (3 Bft)
30.08.2016 15:06 21,6 C 73 % 1024,7 hPa 0,0 l/m 6,1 km/h (2 Bft) W 274 3 min 640 W/m 16,5 C 21,6 C 12,9 km/h (3 Bft)
30.08.2016 15:09 21,8 C 71 % 1024,7 hPa 0,0 l/m 10,1 km/h (2 Bft) W-NW 294 3 min 635 W/m 16,3 C 20,6 C 17,7 km/h (3 Bft)
30.08.2016 15:12 21,7 C 72 % 1024,7 hPa 0,0 l/m 8,8 km/h (2 Bft) W-SW 250 3 min 628 W/m 16,4 C 20,9 C 16,1 km/h (3 Bft)
30.08.2016 15:15 21,6 C 71 % 1024,7 hPa 0,0 l/m 11,5 km/h (2 Bft) S-SW 195 3 min 631 W/m 16,1 C 20,0 C 20,9 km/h (4 Bft)
30.08.2016 15:18 21,6 C 72 % 1024,7 hPa 0,0 l/m 7,7 km/h (2 Bft) W 273 3 min 624 W/m 16,3 C 21,1 C 14,5 km/h (3 Bft)
30.08.2016 15:21 22,1 C 71 % 1024,7 hPa 0,0 l/m 9,4 km/h (2 Bft) W 267 3 min 615 W/m 16,6 C 21,1 C 16,1 km/h (3 Bft)
30.08.2016 15:24 22,0 C 70 % 1024,7 hPa 0,0 l/m 5,8 km/h (2 Bft) W-SW 242 3 min 613 W/m 16,3 C 22,0 C 11,3 km/h (2 Bft)
30.08.2016 15:27 21,8 C 69 % 1024,7 hPa 0,0 l/m 9,1 km/h (2 Bft) S-SW 207 3 min 610 W/m 15,9 C 20,9 C 17,7 km/h (3 Bft)
30.08.2016 15:30 21,5 C 70 % 1024,7 hPa 0,0 l/m 8,5 km/h (2 Bft) W-SW 252 3 min 610 W/m 15,8 C 20,8 C 14,5 km/h (3 Bft)
30.08.2016 15:33 21,6 C 70 % 1024,7 hPa 0,0 l/m 6,9 km/h (2 Bft) W-NW 295 3 min 601 W/m 15,9 C 21,4 C 14,5 km/h (3 Bft)
30.08.2016 15:36 21,8 C 68 % 1024,7 hPa 0,0 l/m 8,0 km/h (2 Bft) W 281 3 min 601 W/m 15,6 C 21,2 C 14,5 km/h (3 Bft)
30.08.2016 15:39 21,9 C 69 % 1024,7 hPa 0,0 l/m 7,7 km/h (2 Bft) W 280 3 min 575 W/m 15,9 C 21,4 C 16,1 km/h (3 Bft)
30.08.2016 15:42 21,8 C 68 % 1024,7 hPa 0,0 l/m 9,6 km/h (2 Bft) W-SW 258 3 min 613 W/m 15,6 C 20,7 C 16,1 km/h (3 Bft)
30.08.2016 15:45 21,6 C 69 % 1024,6 hPa 0,0 l/m 10,4 km/h (2 Bft) W-SW 250 3 min 599 W/m 15,7 C 20,3 C 19,3 km/h (3 Bft)
30.08.2016 15:48 21,7 C 72 % 1024,6 hPa 0,0 l/m 7,1 km/h (2 Bft) W-NW 287 3 min 543 W/m 16,4 C 21,5 C 19,3 km/h (3 Bft)
30.08.2016 15:51 21,6 C 68 % 1024,6 hPa 0,0 l/m 8,3 km/h (2 Bft) SW 216 3 min 571 W/m 15,4 C 20,9 C 14,5 km/h (3 Bft)
30.08.2016 15:54 21,7 C 69 % 1024,5 hPa 0,0 l/m 5,0 km/h (1 Bft) W-NW 284 3 min 555 W/m 15,8 C 21,7 C 11,3 km/h (2 Bft)
30.08.2016 15:57 21,9 C 69 % 1024,6 hPa 0,0 l/m 6,6 km/h (2 Bft) W-NW 284 3 min 559 W/m 15,9 C 21,8 C 14,5 km/h (3 Bft)
30.08.2016 16:00 21,9 C 67 % 1024,5 hPa 0,0 l/m 9,9 km/h (2 Bft) W-NW 286 3 min 552 W/m 15,5 C 20,8 C 17,7 km/h (3 Bft)
30.08.2016 16:03 21,8 C 68 % 1024,6 hPa 0,0 l/m 6,5 km/h (2 Bft) W 281 3 min 548 W/m 15,6 C 21,8 C 12,9 km/h (3 Bft)
30.08.2016 16:06 21,9 C 68 % 1024,5 hPa 0,0 l/m 7,0 km/h (2 Bft) W 270 3 min 550 W/m 15,7 C 21,7 C 14,5 km/h (3 Bft)
30.08.2016 16:09 21,7 C 68 % 1024,5 hPa 0,0 l/m 7,3 km/h (2 Bft) W 276 3 min 541 W/m 15,5 C 21,4 C 14,5 km/h (3 Bft)
30.08.2016 16:12 21,6 C 66 % 1024,5 hPa 0,0 l/m 11,0 km/h (2 Bft) W 273 3 min 531 W/m 15,0 C 20,1 C 16,1 km/h (3 Bft)
30.08.2016 16:15 21,7 C 68 % 1024,5 hPa 0,0 l/m 7,9 km/h (2 Bft) W-NW 286 3 min 534 W/m 15,5 C 21,2 C 16,1 km/h (3 Bft)
30.08.2016 16:18 21,8 C 68 % 1024,4 hPa 0,0 l/m 7,4 km/h (2 Bft) W 265 3 min 519 W/m 15,6 C 21,4 C 12,9 km/h (3 Bft)
30.08.2016 16:21 21,8 C 67 % 1024,4 hPa 0,0 l/m 11,7 km/h (2 Bft) W 281 3 min 513 W/m 15,4 C 20,2 C 20,9 km/h (4 Bft)
30.08.2016 16:24 21,7 C 68 % 1024,4 hPa 0,0 l/m 8,4 km/h (2 Bft) W 261 3 min 496 W/m 15,5 C 21,0 C 14,5 km/h (3 Bft)
30.08.2016 16:27 21,6 C 70 % 1024,4 hPa 0,0 l/m 7,6 km/h (2 Bft) W 271 3 min 499 W/m 15,9 C 21,2 C 14,5 km/h (3 Bft)
30.08.2016 16:30 21,6 C 69 % 1024,3 hPa 0,0 l/m 11,0 km/h (2 Bft) W 264 3 min 480 W/m 15,7 C 20,1 C 16,1 km/h (3 Bft)
30.08.2016 16:33 21,4 C 70 % 1024,3 hPa 0,0 l/m 9,1 km/h (2 Bft) W-SW 249 3 min 482 W/m 15,7 C 20,5 C 14,5 km/h (3 Bft)
30.08.2016 16:36 21,3 C 71 % 1024,3 hPa 0,0 l/m 6,2 km/h (2 Bft) W-SW 258 3 min 462 W/m 15,8 C 21,3 C 14,5 km/h (3 Bft)
30.08.2016 16:39 21,3 C 71 % 1024,3 hPa 0,0 l/m 7,6 km/h (2 Bft) W-NW 303 3 min 471 W/m 15,8 C 20,9 C 14,5 km/h (3 Bft)
30.08.2016 16:42 21,4 C 71 % 1024,2 hPa 0,0 l/m 8,1 km/h (2 Bft) W 262 3 min 464 W/m 15,9 C 20,8 C 14,5 km/h (3 Bft)
30.08.2016 16:45 21,4 C 70 % 1024,3 hPa 0,0 l/m 9,1 km/h (2 Bft) W-NW 303 3 min 454 W/m 15,7 C 20,5 C 14,5 km/h (3 Bft)
30.08.2016 16:48 21,3 C 71 % 1024,2 hPa 0,0 l/m 8,0 km/h (2 Bft) SW 215 3 min 450 W/m 15,8 C 20,7 C 14,5 km/h (3 Bft)
30.08.2016 16:51 21,3 C 71 % 1024,2 hPa 0,0 l/m 9,1 km/h (2 Bft) SW 232 3 min 446 W/m 15,8 C 20,4 C 16,1 km/h (3 Bft)
30.08.2016 16:54 21,2 C 71 % 1024,2 hPa 0,0 l/m 8,2 km/h (2 Bft) W 267 3 min 441 W/m 15,7 C 20,5 C 14,5 km/h (3 Bft)
30.08.2016 16:57 21,2 C 70 % 1024,2 hPa 0,0 l/m 11,7 km/h (2 Bft) SW 232 3 min 436 W/m 15,5 C 19,5 C 17,7 km/h (3 Bft)
30.08.2016 17:00 21,1 C 71 % 1024,2 hPa 0,0 l/m 6,6 km/h (2 Bft) W 274 3 min 431 W/m 15,6 C 21,0 C 12,9 km/h (3 Bft)
30.08.2016 17:03 21,2 C 70 % 1024,1 hPa 0,0 l/m 5,2 km/h (1 Bft) SW 229 3 min 420 W/m 15,5 C 21,2 C 11,3 km/h (2 Bft)
30.08.2016 17:06 21,3 C 70 % 1024,1 hPa 0,0 l/m 7,7 km/h (2 Bft) W-SW 257 3 min 422 W/m 15,6 C 20,8 C 14,5 km/h (3 Bft)
30.08.2016 17:09 21,2 C 69 % 1024,1 hPa 0,0 l/m 9,3 km/h (2 Bft) W 275 3 min 413 W/m 15,3 C 20,2 C 16,1 km/h (3 Bft)
30.08.2016 17:12 21,1 C 68 % 1024,1 hPa 0,0 l/m 7,3 km/h (2 Bft) NW 305 3 min 406 W/m 15,0 C 20,8 C 14,5 km/h (3 Bft)
30.08.2016 17:15 21,1 C 67 % 1024,1 hPa 0,0 l/m 7,0 km/h (2 Bft) NW 311 3 min 397 W/m 14,7 C 20,9 C 16,1 km/h (3 Bft)
30.08.2016 17:18 21,0 C 67 % 1024,1 hPa 0,0 l/m 11,1 km/h (2 Bft) W 270 3 min 390 W/m 14,6 C 19,4 C 17,7 km/h (3 Bft)
30.08.2016 17:21 20,9 C 68 % 1024,0 hPa 0,0 l/m 8,4 km/h (2 Bft) W-NW 286 3 min 381 W/m 14,8 C 20,2 C 16,1 km/h (3 Bft)
30.08.2016 17:24 20,9 C 69 % 1024,0 hPa 0,0 l/m 7,2 km/h (2 Bft) W 265 3 min 255 W/m 15,0 C 20,6 C 16,1 km/h (3 Bft)
30.08.2016 17:27 20,9 C 68 % 1023,9 hPa 0,0 l/m 8,8 km/h (2 Bft) W 259 0 min 60 W/m 14,8 C 20,0 C 17,7 km/h (3 Bft)
30.08.2016 17:30 20,8 C 69 % 1023,9 hPa 0,0 l/m 8,7 km/h (2 Bft) W-SW 255 0 min 60 W/m 14,9 C 19,9 C 16,1 km/h (3 Bft)
30.08.2016 17:33 20,8 C 70 % 1023,9 hPa 0,0 l/m 5,3 km/h (1 Bft) W-SW 258 0 min 58 W/m 15,1 C 20,8 C 11,3 km/h (2 Bft)
30.08.2016 17:36 20,7 C 70 % 1023,9 hPa 0,0 l/m 6,1 km/h (2 Bft) W-NW 288 0 min 58 W/m 15,0 C 20,7 C 12,9 km/h (3 Bft)
30.08.2016 17:39 20,7 C 70 % 1023,9 hPa 0,0 l/m 6,7 km/h (2 Bft) SW 231 0 min 56 W/m 15,0 C 20,6 C 16,1 km/h (3 Bft)
30.08.2016 17:42 20,7 C 70 % 1023,8 hPa 0,0 l/m 5,5 km/h (2 Bft) W 267 0 min 56 W/m 15,0 C 20,7 C 14,5 km/h (3 Bft)
30.08.2016 17:45 20,6 C 71 % 1023,8 hPa 0,0 l/m 5,0 km/h (1 Bft) W 281 0 min 56 W/m 15,2 C 20,6 C 14,5 km/h (3 Bft)
30.08.2016 17:48 20,5 C 72 % 1023,7 hPa 0,0 l/m 6,1 km/h (2 Bft) W 275 0 min 54 W/m 15,3 C 20,5 C 12,9 km/h (3 Bft)
30.08.2016 17:51 20,4 C 72 % 1023,7 hPa 0,0 l/m 6,2 km/h (2 Bft) NW 315 0 min 54 W/m 15,2 C 20,4 C 12,9 km/h (3 Bft)
30.08.2016 17:54 20,4 C 71 % 1023,7 hPa 0,0 l/m 6,5 km/h (2 Bft) W 275 0 min 53 W/m 15,0 C 20,4 C 12,9 km/h (3 Bft)
30.08.2016 17:57 20,4 C 69 % 1023,7 hPa 0,0 l/m 10,6 km/h (2 Bft) W 277 0 min 53 W/m 14,5 C 18,9 C 17,7 km/h (3 Bft)
30.08.2016 18:00 20,4 C 71 % 1023,7 hPa 0,0 l/m 3,8 km/h (1 Bft) W 277 0 min 53 W/m 15,0 C 20,4 C 11,3 km/h (2 Bft)
30.08.2016 18:03 20,4 C 72 % 1023,7 hPa 0,0 l/m 5,2 km/h (1 Bft) W 260 0 min 51 W/m 15,2 C 20,4 C 9,7 km/h (2 Bft)
30.08.2016 18:06 20,4 C 73 % 1023,7 hPa 0,0 l/m 7,5 km/h (2 Bft) W-NW 284 0 min 51 W/m 15,4 C 20,0 C 12,9 km/h (3 Bft)
30.08.2016 18:09 20,4 C 70 % 1023,7 hPa 0,0 l/m 5,9 km/h (2 Bft) W 275 0 min 53 W/m 14,7 C 20,4 C 11,3 km/h (2 Bft)
30.08.2016 18:12 20,3 C 71 % 1023,7 hPa 0,0 l/m 8,4 km/h (2 Bft) NW 310 0 min 53 W/m 14,9 C 19,5 C 16,1 km/h (3 Bft)
30.08.2016 18:15 20,3 C 72 % 1023,6 hPa 0,0 l/m 9,0 km/h (2 Bft) W 279 0 min 51 W/m 15,1 C 19,3 C 14,5 km/h (3 Bft)
30.08.2016 18:18 20,2 C 72 % 1023,6 hPa 0,0 l/m 8,3 km/h (2 Bft) W-NW 286 0 min 49 W/m 15,0 C 19,4 C 14,5 km/h (3 Bft)
30.08.2016 18:21 20,2 C 73 % 1023,6 hPa 0,0 l/m 8,3 km/h (2 Bft) W-NW 288 0 min 49 W/m 15,2 C 19,4 C 16,1 km/h (3 Bft)
30.08.2016 18:24 20,2 C 73 % 1023,6 hPa 0,0 l/m 6,3 km/h (2 Bft) W 276 0 min 49 W/m 15,2 C 20,2 C 12,9 km/h (3 Bft)
30.08.2016 18:27 20,2 C 72 % 1023,6 hPa 0,0 l/m 4,5 km/h (1 Bft) SW 231 0 min 49 W/m 15,0 C 20,2 C 9,7 km/h (2 Bft)
30.08.2016 18:30 20,2 C 73 % 1023,6 hPa 0,0 l/m 4,0 km/h (1 Bft) W 275 0 min 47 W/m 15,2 C 20,2 C 11,3 km/h (2 Bft)
30.08.2016 18:33 20,2 C 73 % 1023,5 hPa 0,0 l/m 6,0 km/h (2 Bft) W-NW 295 0 min 47 W/m 15,2 C 20,2 C 12,9 km/h (3 Bft)
30.08.2016 18:36 20,1 C 73 % 1023,5 hPa 0,0 l/m 4,9 km/h (1 Bft) W-NW 288 0 min 46 W/m 15,1 C 20,1 C 9,7 km/h (2 Bft)
30.08.2016 18:39 20,1 C 73 % 1023,5 hPa 0,0 l/m 6,5 km/h (2 Bft) W-NW 303 0 min 44 W/m 15,1 C 20,1 C 11,3 km/h (2 Bft)
30.08.2016 18:42 20,0 C 73 % 1023,5 hPa 0,0 l/m 3,9 km/h (1 Bft) W 272 0 min 44 W/m 15,0 C 20,0 C 9,7 km/h (2 Bft)
30.08.2016 18:45 20,0 C 74 % 1023,5 hPa 0,0 l/m 5,0 km/h (1 Bft) W-NW 287 0 min 42 W/m 15,2 C 20,0 C 12,9 km/h (3 Bft)
30.08.2016 18:48 19,9 C 73 % 1023,5 hPa 0,0 l/m 5,0 km/h (1 Bft) W-SW 253 0 min 42 W/m 14,9 C 19,9 C 12,9 km/h (3 Bft)
30.08.2016 18:51 19,9 C 73 % 1023,5 hPa 0,0 l/m 5,8 km/h (2 Bft) W-NW 284 0 min 40 W/m 14,9 C 19,9 C 12,9 km/h (3 Bft)
30.08.2016 18:54 19,9 C 72 % 1023,5 hPa 0,0 l/m 4,7 km/h (1 Bft) W 271 0 min 39 W/m 14,7 C 19,9 C 12,9 km/h (3 Bft)
30.08.2016 18:57 19,8 C 73 % 1023,5 hPa 0,0 l/m 4,3 km/h (1 Bft) NW 308 0 min 39 W/m 14,8 C 19,8 C 9,7 km/h (2 Bft)
30.08.2016 19:00 19,8 C 74 % 1023,4 hPa 0,0 l/m 5,2 km/h (1 Bft) W 269 0 min 37 W/m 15,0 C 19,8 C 9,7 km/h (2 Bft)
30.08.2016 19:03 19,8 C 74 % 1023,4 hPa 0,0 l/m 3,8 km/h (1 Bft) W 279 0 min 37 W/m 15,0 C 19,8 C 9,7 km/h (2 Bft)
30.08.2016 19:06 19,8 C 74 % 1023,5 hPa 0,0 l/m 2,8 km/h (1 Bft) W-NW 285 0 min 35 W/m 15,0 C 19,8 C 9,7 km/h (2 Bft)
30.08.2016 19:09 19,7 C 73 % 1023,5 hPa 0,0 l/m 5,3 km/h (1 Bft) W-NW 296 0 min 35 W/m 14,7 C 19,7 C 11,3 km/h (2 Bft)
30.08.2016 19:12 19,7 C 73 % 1023,5 hPa 0,0 l/m 6,0 km/h (2 Bft) W-SW 244 0 min 21 W/m 14,7 C 19,7 C 12,9 km/h (3 Bft)
30.08.2016 19:15 19,6 C 73 % 1023,5 hPa 0,0 l/m 5,4 km/h (2 Bft) W 277 0 min 32 W/m 14,6 C 19,6 C 9,7 km/h (2 Bft)
30.08.2016 19:18 19,6 C 74 % 1023,5 hPa 0,0 l/m 5,2 km/h (1 Bft) W 269 0 min 32 W/m 14,8 C 19,6 C 9,7 km/h (2 Bft)
30.08.2016 19:21 19,6 C 73 % 1023,5 hPa 0,0 l/m 4,9 km/h (1 Bft) W 273 0 min 30 W/m 14,6 C 19,6 C 9,7 km/h (2 Bft)
30.08.2016 19:24 19,6 C 74 % 1023,5 hPa 0,0 l/m 4,9 km/h (1 Bft) SW 227 0 min 28 W/m 14,8 C 19,6 C 9,7 km/h (2 Bft)
30.08.2016 19:27 19,5 C 74 % 1023,5 hPa 0,0 l/m 2,8 km/h (1 Bft) W-SW 252 0 min 28 W/m 14,7 C 19,5 C 6,4 km/h (2 Bft)
30.08.2016 19:30 19,5 C 75 % 1023,5 hPa 0,0 l/m 4,6 km/h (1 Bft) W-SW 258 0 min 25 W/m 14,9 C 19,5 C 11,3 km/h (2 Bft)
30.08.2016 19:33 19,4 C 75 % 1023,5 hPa 0,0 l/m 2,3 km/h (1 Bft) W-NW 284 0 min 25 W/m 14,8 C 19,4 C 6,4 km/h (2 Bft)
30.08.2016 19:36 19,3 C 75 % 1023,5 hPa 0,0 l/m 3,8 km/h (1 Bft) W 269 0 min 23 W/m 14,8 C 19,3 C 9,7 km/h (2 Bft)
30.08.2016 19:39 19,3 C 75 % 1023,5 hPa 0,0 l/m 3,2 km/h (1 Bft) W 278 0 min 21 W/m 14,8 C 19,3 C 6,4 km/h (2 Bft)
30.08.2016 19:42 19,3 C 76 % 1023,5 hPa 0,0 l/m 3,0 km/h (1 Bft) W 273 0 min 19 W/m 15,0 C 19,3 C 9,7 km/h (2 Bft)
30.08.2016 19:45 19,2 C 76 % 1023,5 hPa 0,0 l/m 2,7 km/h (1 Bft) W 277 0 min 19 W/m 14,9 C 19,2 C 6,4 km/h (2 Bft)
30.08.2016 19:48 19,2 C 77 % 1023,5 hPa 0,0 l/m 3,1 km/h (1 Bft) W 259 0 min 18 W/m 15,1 C 19,2 C 6,4 km/h (2 Bft)
30.08.2016 19:51 19,1 C 76 % 1023,5 hPa 0,0 l/m 3,4 km/h (1 Bft) W-NW 292 0 min 16 W/m 14,8 C 19,1 C 6,4 km/h (2 Bft)
30.08.2016 19:54 19,0 C 76 % 1023,5 hPa 0,0 l/m 4,5 km/h (1 Bft) W-NW 283 0 min 14 W/m 14,7 C 19,0 C 9,7 km/h (2 Bft)
30.08.2016 19:57 18,9 C 77 % 1023,4 hPa 0,0 l/m 1,8 km/h (1 Bft) W-NW 282 0 min 12 W/m 14,8 C 18,9 C 4,8 km/h (1 Bft)
30.08.2016 20:00 18,8 C 78 % 1023,4 hPa 0,0 l/m 2,2 km/h (1 Bft) W 281 0 min 11 W/m 14,9 C 18,8 C 4,8 km/h (1 Bft)
30.08.2016 20:03 18,8 C 78 % 1023,3 hPa 0,0 l/m 1,2 km/h (1 Bft) W 281 0 min 9 W/m 14,9 C 18,8 C 4,8 km/h (1 Bft)
30.08.2016 20:06 18,7 C 79 % 1023,4 hPa 0,0 l/m 2,0 km/h (1 Bft) W 281 0 min 7 W/m 15,0 C 18,7 C 4,8 km/h (1 Bft)
30.08.2016 20:09 18,7 C 80 % 1023,4 hPa 0,0 l/m 2,7 km/h (1 Bft) W 269 0 min 7 W/m 15,2 C 18,7 C 4,8 km/h (1 Bft)
30.08.2016 20:12 18,5 C 80 % 1023,3 hPa 0,0 l/m 1,3 km/h (1 Bft) W 269 0 min 5 W/m 15,0 C 18,5 C 3,2 km/h (1 Bft)
30.08.2016 20:15 18,3 C 80 % 1023,4 hPa 0,0 l/m 1,9 km/h (1 Bft) W 269 0 min 0 W/m 14,8 C 18,3 C 3,2 km/h (1 Bft)
30.08.2016 20:18 17,9 C 81 % 1023,5 hPa 0,0 l/m 1,9 km/h (1 Bft) W 269 0 min 0 W/m 14,6 C 17,9 C 3,2 km/h (1 Bft)
30.08.2016 20:21 17,6 C 82 % 1023,5 hPa 0,0 l/m 1,5 km/h (1 Bft) W 269 0 min 0 W/m 14,5 C 17,6 C 3,2 km/h (1 Bft)
30.08.2016 20:24 17,4 C 83 % 1023,5 hPa 0,0 l/m 0,4 km/h (0 Bft) W 269 0 min 0 W/m 14,5 C 17,4 C 1,6 km/h (1 Bft)
30.08.2016 20:27 17,2 C 85 % 1023,6 hPa 0,0 l/m 0,0 km/h (0 Bft) W 269 0 min 0 W/m 14,7 C 17,2 C 1,6 km/h (1 Bft)
30.08.2016 20:30 16,9 C 86 % 1023,6 hPa 0,0 l/m 0,3 km/h (0 Bft) W 269 0 min 0 W/m 14,5 C 16,9 C 1,6 km/h (1 Bft)
30.08.2016 20:33 16,8 C 86 % 1023,6 hPa 0,0 l/m 0,4 km/h (0 Bft) W 269 0 min 0 W/m 14,4 C 16,8 C 1,6 km/h (1 Bft)
30.08.2016 20:36 16,7 C 87 % 1023,6 hPa 0,0 l/m 0,2 km/h (0 Bft) W 269 0 min 0 W/m 14,5 C 16,7 C 1,6 km/h (1 Bft)
30.08.2016 20:39 16,6 C 87 % 1023,5 hPa 0,0 l/m 0,1 km/h (0 Bft) W 269 0 min 0 W/m 14,4 C 16,6 C 1,6 km/h (1 Bft)
30.08.2016 20:42 16,5 C 88 % 1023,5 hPa 0,0 l/m 0,0 km/h (0 Bft) W 269 0 min 0 W/m 14,5 C 16,5 C 0,0 km/h (0 Bft)
30.08.2016 20:45 16,4 C 88 % 1023,6 hPa 0,0 l/m 0,1 km/h (0 Bft) W 269 0 min 0 W/m 14,4 C 16,4 C 1,6 km/h (1 Bft)
30.08.2016 20:48 16,4 C 89 % 1023,6 hPa 0,0 l/m 0,0 km/h (0 Bft) W 269 0 min 0 W/m 14,6 C 16,4 C 1,6 km/h (1 Bft)
30.08.2016 20:51 16,3 C 89 % 1023,6 hPa 0,0 l/m 0,0 km/h (0 Bft) W 269 0 min 0 W/m 14,5 C 16,3 C 0,0 km/h (0 Bft)
30.08.2016 20:54 16,3 C 89 % 1023,6 hPa 0,0 l/m 0,7 km/h (0 Bft) W 269 0 min 0 W/m 14,5 C 16,3 C 1,6 km/h (1 Bft)
30.08.2016 20:57 16,2 C 89 % 1023,6 hPa 0,0 l/m 0,3 km/h (0 Bft) W 269 0 min 0 W/m 14,4 C 16,2 C 1,6 km/h (1 Bft)
30.08.2016 21:00 16,2 C 89 % 1023,6 hPa 0,0 l/m 0,0 km/h (0 Bft) W 269 0 min 0 W/m 14,4 C 16,2 C 1,6 km/h (1 Bft)
30.08.2016 21:03 16,1 C 89 % 1023,6 hPa 0,0 l/m 0,0 km/h (0 Bft) W 269 0 min 0 W/m 14,3 C 16,1 C 0,0 km/h (0 Bft)
30.08.2016 21:06 16,0 C 89 % 1023,6 hPa 0,0 l/m 0,0 km/h (0 Bft) W 269 0 min 0 W/m 14,2 C 16,0 C 0,0 km/h (0 Bft)
30.08.2016 21:09 15,9 C 90 % 1023,6 hPa 0,0 l/m 0,2 km/h (0 Bft) W 269 0 min 0 W/m 14,3 C 15,9 C 1,6 km/h (1 Bft)
30.08.2016 21:12 15,8 C 90 % 1023,6 hPa 0,0 l/m 0,0 km/h (0 Bft) W 269 0 min 0 W/m 14,2 C 15,8 C 0,0 km/h (0 Bft)
30.08.2016 21:15 15,7 C 90 % 1023,6 hPa 0,0 l/m 0,0 km/h (0 Bft) W 269 0 min 0 W/m 14,1 C 15,7 C 0,0 km/h (0 Bft)
30.08.2016 21:18 15,7 C 91 % 1023,6 hPa 0,0 l/m 0,0 km/h (0 Bft) W 269 0 min 0 W/m 14,2 C 15,7 C 0,0 km/h (0 Bft)
30.08.2016 21:21 15,7 C 91 % 1023,6 hPa 0,0 l/m 0,0 km/h (0 Bft) W 269 0 min 0 W/m 14,2 C 15,7 C 1,6 km/h (1 Bft)
30.08.2016 21:24 15,7 C 91 % 1023,5 hPa 0,0 l/m 0,0 km/h (0 Bft) W 269 0 min 0 W/m 14,2 C 15,7 C 0,0 km/h (0 Bft)
30.08.2016 21:27 15,6 C 91 % 1023,6 hPa 0,0 l/m 0,0 km/h (0 Bft) W 269 0 min 0 W/m 14,1 C 15,6 C 0,0 km/h (0 Bft)
30.08.2016 21:30 15,6 C 91 % 1023,6 hPa 0,0 l/m 0,0 km/h (0 Bft) W 269 0 min 0 W/m 14,1 C 15,6 C 0,0 km/h (0 Bft)
30.08.2016 21:33 15,5 C 91 % 1023,6 hPa 0,0 l/m 0,0 km/h (0 Bft) W 269 0 min 0 W/m 14,0 C 15,5 C 0,0 km/h (0 Bft)
30.08.2016 21:36 15,4 C 91 % 1023,5 hPa 0,0 l/m 0,0 km/h (0 Bft) W 269 0 min 0 W/m 13,9 C 15,4 C 0,0 km/h (0 Bft)
30.08.2016 21:39 15,4 C 91 % 1023,6 hPa 0,0 l/m 0,0 km/h (0 Bft) W 269 0 min 0 W/m 13,9 C 15,4 C 1,6 km/h (1 Bft)
30.08.2016 21:42 15,3 C 92 % 1023,6 hPa 0,0 l/m 0,4 km/h (0 Bft) W 269 0 min 0 W/m 14,0 C 15,3 C 1,6 km/h (1 Bft)
30.08.2016 21:45 15,3 C 92 % 1023,6 hPa 0,0 l/m 0,3 km/h (0 Bft) W 269 0 min 0 W/m 14,0 C 15,3 C 1,6 km/h (1 Bft)
30.08.2016 21:48 15,3 C 92 % 1023,6 hPa 0,0 l/m 0,0 km/h (0 Bft) W 269 0 min 0 W/m 14,0 C 15,3 C 1,6 km/h (1 Bft)
30.08.2016 21:51 15,3 C 92 % 1023,6 hPa 0,0 l/m 0,0 km/h (0 Bft) W 269 0 min 0 W/m 14,0 C 15,3 C 0,0 km/h (0 Bft)
30.08.2016 21:54 15,3 C 92 % 1023,6 hPa 0,0 l/m 0,0 km/h (0 Bft) W 269 0 min 0 W/m 14,0 C 15,3 C 0,0 km/h (0 Bft)
30.08.2016 21:57 15,3 C 92 % 1023,6 hPa 0,0 l/m 0,0 km/h (0 Bft) W 269 0 min 0 W/m 14,0 C 15,3 C 0,0 km/h (0 Bft)
30.08.2016 22:00 15,3 C 92 % 1023,6 hPa 0,0 l/m 0,0 km/h (0 Bft) W 269 0 min 0 W/m 14,0 C 15,3 C 0,0 km/h (0 Bft)
30.08.2016 22:03 15,3 C 92 % 1023,6 hPa 0,0 l/m 0,0 km/h (0 Bft) W 269 0 min 0 W/m 14,0 C 15,3 C 0,0 km/h (0 Bft)
30.08.2016 22:06 15,2 C 92 % 1023,6 hPa 0,0 l/m 0,1 km/h (0 Bft) W 269 0 min 0 W/m 13,9 C 15,2 C 1,6 km/h (1 Bft)
30.08.2016 22:09 15,2 C 92 % 1023,5 hPa 0,0 l/m 0,2 km/h (0 Bft) W 269 0 min 0 W/m 13,9 C 15,2 C 1,6 km/h (1 Bft)
30.08.2016 22:12 15,1 C 92 % 1023,5 hPa 0,0 l/m 0,1 km/h (0 Bft) W 269 0 min 0 W/m 13,8 C 15,1 C 1,6 km/h (1 Bft)
30.08.2016 22:15 15,0 C 93 % 1023,5 hPa 0,0 l/m 0,0 km/h (0 Bft) W 269 0 min 0 W/m 13,9 C 15,0 C 1,6 km/h (1 Bft)
30.08.2016 22:18 14,9 C 93 % 1023,5 hPa 0,0 l/m 0,0 km/h (0 Bft) W 269 0 min 0 W/m 13,8 C 14,9 C 1,6 km/h (1 Bft)
30.08.2016 22:21 14,9 C 93 % 1023,5 hPa 0,0 l/m 0,1 km/h (0 Bft) W 269 0 min 0 W/m 13,8 C 14,9 C 1,6 km/h (1 Bft)
30.08.2016 22:24 14,8 C 93 % 1023,4 hPa 0,0 l/m 0,0 km/h (0 Bft) W 269 0 min 0 W/m 13,7 C 14,8 C 0,0 km/h (0 Bft)
30.08.2016 22:27 14,9 C 93 % 1023,4 hPa 0,0 l/m 0,0 km/h (0 Bft) W 269 0 min 0 W/m 13,8 C 14,9 C 1,6 km/h (1 Bft)
30.08.2016 22:30 14,9 C 93 % 1023,5 hPa 0,0 l/m 0,1 km/h (0 Bft) W 269 0 min 0 W/m 13,8 C 14,9 C 1,6 km/h (1 Bft)
30.08.2016 22:33 14,8 C 93 % 1023,4 hPa 0,0 l/m 0,0 km/h (0 Bft) W 269 0 min 0 W/m 13,7 C 14,8 C 0,0 km/h (0 Bft)
30.08.2016 22:36 14,8 C 93 % 1023,4 hPa 0,0 l/m 0,0 km/h (0 Bft) W 269 0 min 0 W/m 13,7 C 14,8 C 0,0 km/h (0 Bft)
30.08.2016 22:39 14,8 C 94 % 1023,3 hPa 0,0 l/m 0,0 km/h (0 Bft) W 269 0 min 0 W/m 13,8 C 14,8 C 0,0 km/h (0 Bft)
30.08.2016 22:42 14,8 C 94 % 1023,4 hPa 0,0 l/m 0,0 km/h (0 Bft) W 269 0 min 0 W/m 13,8 C 14,8 C 0,0 km/h (0 Bft)
30.08.2016 22:45 14,8 C 94 % 1023,4 hPa 0,0 l/m 0,0 km/h (0 Bft) W 269 0 min 0 W/m 13,8 C 14,8 C 0,0 km/h (0 Bft)
30.08.2016 22:48 14,8 C 94 % 1023,4 hPa 0,0 l/m 0,0 km/h (0 Bft) W 269 0 min 0 W/m 13,8 C 14,8 C 0,0 km/h (0 Bft)
30.08.2016 22:51 14,7 C 94 % 1023,3 hPa 0,0 l/m 0,0 km/h (0 Bft) W 269 0 min 0 W/m 13,7 C 14,7 C 1,6 km/h (1 Bft)
30.08.2016 22:54 14,7 C 94 % 1023,3 hPa 0,0 l/m 0,0 km/h (0 Bft) W 269 0 min 0 W/m 13,7 C 14,7 C 0,0 km/h (0 Bft)
30.08.2016 22:57 14,7 C 94 % 1023,3 hPa 0,0 l/m 0,0 km/h (0 Bft) W 269 0 min 0 W/m 13,7 C 14,7 C 0,0 km/h (0 Bft)
30.08.2016 23:00 14,7 C 94 % 1023,3 hPa 0,0 l/m 0,0 km/h (0 Bft) W 269 0 min 0 W/m 13,7 C 14,7 C 0,0 km/h (0 Bft)
30.08.2016 23:03 14,7 C 94 % 1023,2 hPa 0,0 l/m 0,0 km/h (0 Bft) W 269 0 min 0 W/m 13,7 C 14,7 C 0,0 km/h (0 Bft)
30.08.2016 23:06 14,7 C 94 % 1023,3 hPa 0,0 l/m 0,0 km/h (0 Bft) W 269 0 min 0 W/m 13,7 C 14,7 C 0,0 km/h (0 Bft)
30.08.2016 23:09 14,7 C 94 % 1023,3 hPa 0,0 l/m 0,0 km/h (0 Bft) W 269 0 min 0 W/m 13,7 C 14,7 C 0,0 km/h (0 Bft)
30.08.2016 23:12 14,7 C 94 % 1023,3 hPa 0,0 l/m 0,0 km/h (0 Bft) W 269 0 min 0 W/m 13,7 C 14,7 C 0,0 km/h (0 Bft)
30.08.2016 23:15 14,7 C 94 % 1023,3 hPa 0,0 l/m 0,0 km/h (0 Bft) W 269 0 min 0 W/m 13,7 C 14,7 C 0,0 km/h (0 Bft)
30.08.2016 23:18 14,7 C 94 % 1023,3 hPa 0,0 l/m 0,0 km/h (0 Bft) W 269 0 min 0 W/m 13,7 C 14,7 C 0,0 km/h (0 Bft)
30.08.2016 23:21 14,7 C 94 % 1023,3 hPa 0,0 l/m 0,0 km/h (0 Bft) W 269 0 min 0 W/m 13,7 C 14,7 C 0,0 km/h (0 Bft)
30.08.2016 23:24 14,7 C 95 % 1023,3 hPa 0,0 l/m 0,0 km/h (0 Bft) W 269 0 min 0 W/m 13,9 C 14,7 C 0,0 km/h (0 Bft)
30.08.2016 23:27 14,7 C 95 % 1023,3 hPa 0,0 l/m 0,0 km/h (0 Bft) W 269 0 min 0 W/m 13,9 C 14,7 C 0,0 km/h (0 Bft)
30.08.2016 23:30 14,6 C 95 % 1023,3 hPa 0,0 l/m 0,0 km/h (0 Bft) W 269 0 min 0 W/m 13,8 C 14,6 C 0,0 km/h (0 Bft)
30.08.2016 23:33 14,6 C 95 % 1023,3 hPa 0,0 l/m 0,0 km/h (0 Bft) W 269 0 min 0 W/m 13,8 C 14,6 C 0,0 km/h (0 Bft)
30.08.2016 23:36 14,6 C 95 % 1023,4 hPa 0,0 l/m 0,0 km/h (0 Bft) W 269 0 min 0 W/m 13,8 C 14,6 C 0,0 km/h (0 Bft)
30.08.2016 23:39 14,5 C 95 % 1023,4 hPa 0,0 l/m 0,0 km/h (0 Bft) W 269 0 min 0 W/m 13,7 C 14,5 C 0,0 km/h (0 Bft)
30.08.2016 23:42 14,4 C 94 % 1023,4 hPa 0,0 l/m 0,0 km/h (0 Bft) W 269 0 min 0 W/m 13,4 C 14,4 C 0,0 km/h (0 Bft)
30.08.2016 23:45 14,3 C 95 % 1023,4 hPa 0,0 l/m 0,0 km/h (0 Bft) W 269 0 min 0 W/m 13,5 C 14,3 C 0,0 km/h (0 Bft)
30.08.2016 23:48 14,3 C 95 % 1023,4 hPa 0,0 l/m 0,0 km/h (0 Bft) W 269 0 min 0 W/m 13,5 C 14,3 C 0,0 km/h (0 Bft)
30.08.2016 23:51 14,3 C 95 % 1023,3 hPa 0,0 l/m 0,0 km/h (0 Bft) W 269 0 min 0 W/m 13,5 C 14,3 C 0,0 km/h (0 Bft)
30.08.2016 23:54 14,3 C 95 % 1023,3 hPa 0,0 l/m 0,0 km/h (0 Bft) W 269 0 min 0 W/m 13,5 C 14,3 C 0,0 km/h (0 Bft)
30.08.2016 23:57 14,3 C 95 % 1023,3 hPa 0,0 l/m 0,0 km/h (0 Bft) W 269 0 min 0 W/m 13,5 C 14,3 C 0,0 km/h (0 Bft)
_ Min-Zeit 23:45 16:12 00:00 - 20:27 - - - - 02:51 08:15 20:42
Minimum _ 14,3 C 66 % 1021,6 hPa - 0,0 km/h (0 Bft) - - - - 12,5 C 13,4 C 0,0 km/h (0 Bft)
_ Max-Zeit 15:21 23:24 11:30 00:00 11:33 - - 12:00 13:03 14:24 15:24 09:42
Maximum _ 22,1 C 95 % 1024,9 hPa 0,0 l/m 15,3 km/h
S-SW (3 Bft)
- - 3 min 754 W/m 16,7 C 22,0 C 24,1 km/h
SW (4 Bft)
Durchschnitt _ 17,8 C 81 % 1023,5 hPa #0,0 l/m 7,0 km/h (2 Bft) W - #5:24 h 268 W/m 14,4 C 17,0 C 13,1 km/h (3 Bft)
2016 Cux-Wetter.de -Die Nutzung der Wetterdaten nur mit ausdrcklicher Genehmigung